Time,TemperatureF,DewpointF,PressureIn,WindDirection,WindDirectionDegrees,WindSpeedMPH,WindSpeedGustMPH,Humidity,HourlyPrecipIn,Conditions,Clouds,dailyrainin,SoftwareType,DateUTC
2013-08-18 00:00:00,65.2,57.1,30.09,ESE,112,4.0,7.0,75,0.00,,---,0.00,VWS V14.01,2013-08-18 05:00:00,
2013-08-18 00:01:00,65.2,57.1,30.09,ESE,110,3.0,7.0,75,0.00,,SKC,0.00,VWS V14.01,2013-08-18 05:01:00,
2013-08-18 00:02:00,65.2,57.1,30.09,ESE,110,2.0,4.0,75,0.00,,SKC,0.00,VWS V14.01,2013-08-18 05:02:00,
2013-08-18 00:06:00,64.8,57.1,30.09,ESE,110,3.0,4.0,76,0.00,,SKC,0.00,VWS V14.01,2013-08-18 05:06:00,
2013-08-18 00:07:00,64.8,57.1,30.09,ESE,115,7.0,7.0,76,0.00,,SKC,0.00,VWS V14.01,2013-08-18 05:07:00,
2013-08-18 00:10:00,64.5,57.1,30.09,ESE,112,3.0,10.0,77,0.00,,---,0.00,VWS V14.01,2013-08-18 05:10:00,
2013-08-18 00:11:00,64.5,57.1,30.09,ESE,117,4.0,10.0,77,0.00,,SKC,0.00,VWS V14.01,2013-08-18 05:11:00,
2013-08-18 00:12:00,64.5,57.1,30.09,ESE,117,4.0,6.0,77,0.00,,SKC,0.00,VWS V14.01,2013-08-18 05:12:00,
2013-08-18 00:16:00,64.2,57.2,30.09,ESE,114,6.0,7.0,78,0.00,,SKC,0.00,VWS V14.01,2013-08-18 05:16:00,
2013-08-18 00:17:00,64.2,57.2,30.09,ESE,107,2.0,7.0,78,0.00,,SKC,0.00,VWS V14.01,2013-08-18 05:17:00,
2013-08-18 00:20:00,64.2,57.2,30.09,ESE,112,4.0,7.0,78,0.00,,---,0.00,VWS V14.01,2013-08-18 05:20:00,
2013-08-18 00:21:00,64.2,57.2,30.09,ESE,112,4.0,7.0,78,0.00,,SKC,0.00,VWS V14.01,2013-08-18 05:21:00,
2013-08-18 00:22:00,64.2,57.2,30.09,ESE,112,4.0,4.0,78,0.00,,SKC,0.00,VWS V14.01,2013-08-18 05:22:00,
2013-08-18 00:26:00,64.2,57.2,30.09,ESE,115,6.0,7.0,78,0.00,,SKC,0.00,VWS V14.01,2013-08-18 05:26:00,
2013-08-18 00:27:00,64.2,57.2,30.09,ESE,115,3.0,7.0,78,0.00,,SKC,0.00,VWS V14.01,2013-08-18 05:27:00,
2013-08-18 00:30:00,64.0,57.0,30.09,ESE,112,4.0,7.0,78,0.00,,---,0.00,VWS V14.01,2013-08-18 05:30:00,
2013-08-18 00:31:00,64.0,57.0,30.09,ESE,113,3.0,7.0,78,0.00,,SKC,0.00,VWS V14.01,2013-08-18 05:31:00,
2013-08-18 00:32:00,64.0,57.0,30.09,ESE,113,3.0,4.0,78,0.00,,SKC,0.00,VWS V14.01,2013-08-18 05:32:00,
2013-08-18 00:36:00,63.9,57.3,30.09,ESE,113,3.0,5.0,79,0.00,,SKC,0.00,VWS V14.01,2013-08-18 05:36:00,
2013-08-18 00:37:00,63.9,57.3,30.09,ESE,113,3.0,5.0,79,0.00,,SKC,0.00,VWS V14.01,2013-08-18 05:37:00,
2013-08-18 00:40:00,63.7,57.1,30.09,ESE,112,3.0,5.0,79,0.00,,---,0.00,VWS V14.01,2013-08-18 05:40:00,
2013-08-18 00:41:00,63.7,57.1,30.09,ESE,112,2.0,2.0,79,0.00,,SKC,0.00,VWS V14.01,2013-08-18 05:41:00,
2013-08-18 00:42:00,63.7,57.1,30.09,ESE,112,3.0,3.0,79,0.00,,SKC,0.00,VWS V14.01,2013-08-18 05:42:00,
2013-08-18 00:46:00,63.5,56.9,30.09,ESE,112,3.0,4.0,79,0.00,,SKC,0.00,VWS V14.01,2013-08-18 05:46:00,
2013-08-18 00:47:00,63.5,56.9,30.09,ESE,113,3.0,4.0,79,0.00,,SKC,0.00,VWS V14.01,2013-08-18 05:47:00,
2013-08-18 00:50:00,63.4,56.8,30.09,ESE,112,3.0,5.0,79,0.00,,---,0.00,VWS V14.01,2013-08-18 05:50:00,
2013-08-18 00:51:00,63.4,56.8,30.09,ESE,112,3.0,3.0,79,0.00,,SKC,0.00,VWS V14.01,2013-08-18 05:51:00,
2013-08-18 00:52:00,63.4,56.8,30.09,ESE,112,3.0,3.0,79,0.00,,SKC,0.00,VWS V14.01,2013-08-18 05:52:00,
2013-08-18 00:56:00,63.2,56.9,30.09,ESE,112,2.0,4.0,80,0.00,,SKC,0.00,VWS V14.01,2013-08-18 05:56:00,
2013-08-18 00:57:00,63.2,56.9,30.09,ESE,112,3.0,4.0,80,0.00,,SKC,0.00,VWS V14.01,2013-08-18 05:57:00,
2013-08-18 01:00:00,63.2,56.9,30.09,ESE,112,2.0,4.0,80,0.00,,---,0.00,VWS V14.01,2013-08-18 06:00:00,
2013-08-18 01:01:00,63.2,56.9,30.09,ESE,112,2.0,2.0,80,0.00,,SKC,0.00,VWS V14.01,2013-08-18 06:01:00,
2013-08-18 01:02:00,63.1,56.8,30.09,ESE,112,1.0,2.0,80,0.00,,SKC,0.00,VWS V14.01,2013-08-18 06:02:00,
2013-08-18 01:06:00,63.1,56.8,30.09,ESE,112,0.0,2.0,80,0.00,,SKC,0.00,VWS V14.01,2013-08-18 06:06:00,
2013-08-18 01:07:00,62.9,56.6,30.09,ESE,112,0.0,2.0,80,0.00,,SKC,0.00,VWS V14.01,2013-08-18 06:07:00,
2013-08-18 01:10:00,62.7,56.5,30.09,ESE,112,1.0,2.0,80,0.00,,---,0.00,VWS V14.01,2013-08-18 06:10:00,
2013-08-18 01:11:00,62.7,56.5,30.09,ESE,112,0.0,0.0,80,0.00,,SKC,0.00,VWS V14.01,2013-08-18 06:11:00,
2013-08-18 01:12:00,62.7,56.5,30.09,ESE,112,0.0,0.0,80,0.00,,SKC,0.00,VWS V14.01,2013-08-18 06:12:00,
2013-08-18 01:13:00,62.7,56.5,30.09,ESE,112,0.0,0.0,80,0.00,,SKC,0.00,VWS V14.01,2013-08-18 06:13:00,
2013-08-18 01:16:00,62.6,56.7,30.09,ESE,112,0.0,0.0,81,0.00,,SKC,0.00,VWS V14.01,2013-08-18 06:16:00,
2013-08-18 01:17:00,62.6,56.7,30.09,ESE,112,0.0,0.0,81,0.00,,SKC,0.00,VWS V14.01,2013-08-18 06:17:00,
2013-08-18 01:18:00,62.6,56.7,30.09,ESE,112,0.0,0.0,81,0.00,,SKC,0.00,VWS V14.01,2013-08-18 06:18:00,
2013-08-18 01:20:00,62.6,56.7,30.09,ESE,112,0.0,0.0,81,0.00,,---,0.00,VWS V14.01,2013-08-18 06:20:00,
2013-08-18 01:21:00,62.6,56.7,30.09,ESE,112,0.0,0.0,81,0.00,,SKC,0.00,VWS V14.01,2013-08-18 06:21:00,
2013-08-18 01:22:00,62.4,56.5,30.09,ESE,112,0.0,0.0,81,0.00,,SKC,0.00,VWS V14.01,2013-08-18 06:22:00,
2013-08-18 01:23:00,62.4,56.5,30.09,ESE,112,0.0,0.0,81,0.00,,SKC,0.00,VWS V14.01,2013-08-18 06:23:00,
2013-08-18 01:26:00,62.4,56.5,30.09,ESE,112,0.0,0.0,81,0.00,,SKC,0.00,VWS V14.01,2013-08-18 06:26:00,
2013-08-18 01:27:00,62.4,56.5,30.09,ESE,112,0.0,0.0,81,0.00,,SKC,0.00,VWS V14.01,2013-08-18 06:27:00,
2013-08-18 01:28:00,62.4,56.5,30.09,ESE,112,0.0,0.0,81,0.00,,SKC,0.00,VWS V14.01,2013-08-18 06:28:00,
2013-08-18 01:30:00,62.4,56.5,30.08,ESE,112,0.0,0.0,81,0.00,,---,0.00,VWS V14.01,2013-08-18 06:30:00,
2013-08-18 01:31:00,62.4,56.5,30.08,ESE,112,0.0,0.0,81,0.00,,SKC,0.00,VWS V14.01,2013-08-18 06:31:00,
2013-08-18 01:32:00,62.4,56.5,30.08,ESE,112,0.0,0.0,81,0.00,,SKC,0.00,VWS V14.01,2013-08-18 06:32:00,
2013-08-18 01:33:00,62.3,56.4,30.08,ESE,112,0.0,0.0,81,0.00,,SKC,0.00,VWS V14.01,2013-08-18 06:33:00,
2013-08-18 01:36:00,62.3,56.4,30.08,ESE,112,0.0,0.0,81,0.00,,SKC,0.00,VWS V14.01,2013-08-18 06:36:00,
2013-08-18 01:37:00,62.1,56.5,30.08,ESE,112,0.0,0.0,82,0.00,,SKC,0.00,VWS V14.01,2013-08-18 06:37:00,
2013-08-18 01:38:00,62.1,56.5,30.08,ESE,112,0.0,0.0,82,0.00,,SKC,0.00,VWS V14.01,2013-08-18 06:38:00,
2013-08-18 01:40:00,62.0,56.5,30.08,ESE,112,0.0,0.0,82,0.00,,---,0.00,VWS V14.01,2013-08-18 06:40:00,
2013-08-18 01:41:00,62.0,56.5,30.08,ESE,112,0.0,0.0,82,0.00,,SKC,0.00,VWS V14.01,2013-08-18 06:41:00,
2013-08-18 01:42:00,62.0,56.5,30.08,ESE,112,0.0,0.0,82,0.00,,SKC,0.00,VWS V14.01,2013-08-18 06:42:00,
2013-08-18 01:43:00,62.0,56.5,30.08,ESE,112,0.0,0.0,82,0.00,,SKC,0.00,VWS V14.01,2013-08-18 06:43:00,
2013-08-18 01:46:00,62.0,56.5,30.09,ESE,112,0.0,0.0,82,0.00,,SKC,0.00,VWS V14.01,2013-08-18 06:46:00,
2013-08-18 01:47:00,62.0,56.5,30.09,ESE,112,0.0,0.0,82,0.00,,SKC,0.00,VWS V14.01,2013-08-18 06:47:00,
2013-08-18 01:48:00,62.0,56.5,30.09,ESE,112,0.0,0.0,82,0.00,,SKC,0.00,VWS V14.01,2013-08-18 06:48:00,
2013-08-18 01:50:00,62.0,56.5,30.09,ESE,112,0.0,1.0,82,0.00,,---,0.00,VWS V14.01,2013-08-18 06:50:00,
2013-08-18 01:51:00,62.0,56.5,30.09,ESE,112,0.0,0.0,82,0.00,,SKC,0.00,VWS V14.01,2013-08-18 06:51:00,
2013-08-18 01:52:00,62.0,56.5,30.09,ESE,112,0.0,1.0,82,0.00,,SKC,0.00,VWS V14.01,2013-08-18 06:52:00,
2013-08-18 01:53:00,62.0,56.5,30.09,ESE,111,0.0,1.0,82,0.00,,SKC,0.00,VWS V14.01,2013-08-18 06:53:00,
2013-08-18 01:56:00,62.1,56.5,30.09,ESE,111,2.0,3.0,82,0.00,,SKC,0.00,VWS V14.01,2013-08-18 06:56:00,
2013-08-18 01:57:00,62.1,56.5,30.09,ESE,111,0.0,3.0,82,0.00,,SKC,0.00,VWS V14.01,2013-08-18 06:57:00,
2013-08-18 01:58:00,62.1,56.5,30.09,ESE,111,0.0,3.0,82,0.00,,SKC,0.00,VWS V14.01,2013-08-18 06:58:00,
2013-08-18 02:00:00,62.3,56.7,30.08,ESE,112,0.0,3.0,82,0.00,,---,0.00,VWS V14.01,2013-08-18 07:00:00,
2013-08-18 02:01:00,62.3,56.7,30.08,ESE,111,0.0,0.0,82,0.00,,SKC,0.00,VWS V14.01,2013-08-18 07:01:00,
2013-08-18 02:02:00,62.3,56.7,30.08,ESE,111,0.0,0.0,82,0.00,,SKC,0.00,VWS V14.01,2013-08-18 07:02:00,
2013-08-18 02:03:00,62.3,56.7,30.08,ESE,111,0.0,0.0,82,0.00,,SKC,0.00,VWS V14.01,2013-08-18 07:03:00,
2013-08-18 02:06:00,62.3,56.4,30.08,ESE,111,0.0,0.0,81,0.00,,SKC,0.00,VWS V14.01,2013-08-18 07:06:00,
2013-08-18 02:07:00,62.3,56.4,30.08,ESE,111,0.0,0.0,81,0.00,,SKC,0.00,VWS V14.01,2013-08-18 07:07:00,
2013-08-18 02:08:00,62.3,56.4,30.08,ESE,111,0.0,0.0,81,0.00,,SKC,0.00,VWS V14.01,2013-08-18 07:08:00,
2013-08-18 02:10:00,62.3,56.4,30.08,ESE,112,0.0,0.0,81,0.00,,---,0.00,VWS V14.01,2013-08-18 07:10:00,
2013-08-18 02:11:00,62.3,56.4,30.08,ESE,111,0.0,0.0,81,0.00,,SKC,0.00,VWS V14.01,2013-08-18 07:11:00,
2013-08-18 02:13:00,62.3,56.4,30.08,ESE,111,0.0,0.0,81,0.00,,SKC,0.00,VWS V14.01,2013-08-18 07:13:00,
2013-08-18 02:17:00,62.3,56.4,30.08,ESE,111,0.0,0.0,81,0.00,,SKC,0.00,VWS V14.01,2013-08-18 07:17:00,
2013-08-18 02:18:00,62.3,56.4,30.08,ESE,111,0.0,0.0,81,0.00,,SKC,0.00,VWS V14.01,2013-08-18 07:18:00,
2013-08-18 02:20:00,62.1,56.2,30.08,ESE,112,0.0,0.0,81,0.00,,---,0.00,VWS V14.01,2013-08-18 07:20:00,
2013-08-18 02:22:00,62.1,56.2,30.08,ESE,111,0.0,0.0,81,0.00,,SKC,0.00,VWS V14.01,2013-08-18 07:22:00,
2013-08-18 02:23:00,62.1,56.2,30.08,ESE,111,0.0,0.0,81,0.00,,SKC,0.00,VWS V14.01,2013-08-18 07:23:00,
2013-08-18 02:24:00,62.1,56.2,30.08,ESE,111,0.0,0.0,81,0.00,,SKC,0.00,VWS V14.01,2013-08-18 07:24:00,
2013-08-18 02:27:00,62.1,56.2,30.08,ESE,111,0.0,0.0,81,0.00,,SKC,0.00,VWS V14.01,2013-08-18 07:27:00,
2013-08-18 02:28:00,62.1,56.2,30.08,ESE,111,0.0,0.0,81,0.00,,SKC,0.00,VWS V14.01,2013-08-18 07:28:00,
2013-08-18 02:29:00,62.1,56.2,30.08,ESE,111,0.0,0.0,81,0.00,,SKC,0.00,VWS V14.01,2013-08-18 07:29:00,
2013-08-18 02:30:00,62.0,56.1,30.07,ESE,112,0.0,0.0,81,0.00,,---,0.00,VWS V14.01,2013-08-18 07:30:00,
2013-08-18 02:32:00,62.0,56.1,30.07,ESE,111,0.0,0.0,81,0.00,,SKC,0.00,VWS V14.01,2013-08-18 07:32:00,
2013-08-18 02:33:00,62.0,56.1,30.07,ESE,111,0.0,0.0,81,0.00,,SKC,0.00,VWS V14.01,2013-08-18 07:33:00,
2013-08-18 02:34:00,62.0,56.1,30.07,ESE,111,0.0,0.0,81,0.00,,SKC,0.00,VWS V14.01,2013-08-18 07:34:00,
2013-08-18 02:37:00,61.8,56.2,30.07,ESE,111,0.0,0.0,82,0.00,,SKC,0.00,VWS V14.01,2013-08-18 07:37:00,
2013-08-18 02:38:00,61.8,56.2,30.07,ESE,111,0.0,0.0,82,0.00,,SKC,0.00,VWS V14.01,2013-08-18 07:38:00,
2013-08-18 02:39:00,61.8,56.2,30.07,ESE,111,0.0,0.0,82,0.00,,SKC,0.00,VWS V14.01,2013-08-18 07:39:00,
2013-08-18 02:40:00,61.8,56.2,30.07,ESE,112,0.0,0.0,82,0.00,,---,0.00,VWS V14.01,2013-08-18 07:40:00,
2013-08-18 02:42:00,61.6,56.1,30.07,ESE,111,0.0,0.0,82,0.00,,SKC,0.00,VWS V14.01,2013-08-18 07:42:00,
2013-08-18 02:43:00,61.6,56.1,30.07,ESE,111,0.0,0.0,82,0.00,,SKC,0.00,VWS V14.01,2013-08-18 07:43:00,
2013-08-18 02:44:00,61.6,56.1,30.07,ESE,111,0.0,0.0,82,0.00,,SKC,0.00,VWS V14.01,2013-08-18 07:44:00,
2013-08-18 02:47:00,61.5,56.0,30.07,ESE,111,0.0,0.0,82,0.00,,SKC,0.00,VWS V14.01,2013-08-18 07:47:00,
2013-08-18 02:48:00,61.5,56.0,30.07,ESE,111,0.0,0.0,82,0.00,,SKC,0.00,VWS V14.01,2013-08-18 07:48:00,
2013-08-18 02:49:00,61.5,56.0,30.07,ESE,111,0.0,0.0,82,0.00,,SKC,0.00,VWS V14.01,2013-08-18 07:49:00,
2013-08-18 02:50:00,61.3,56.1,30.07,ESE,112,0.0,0.0,83,0.00,,---,0.00,VWS V14.01,2013-08-18 07:50:00,
2013-08-18 02:52:00,61.3,56.1,30.07,ESE,111,0.0,0.0,83,0.00,,SKC,0.00,VWS V14.01,2013-08-18 07:52:00,
2013-08-18 02:53:00,61.3,56.1,30.07,ESE,111,0.0,0.0,83,0.00,,SKC,0.00,VWS V14.01,2013-08-18 07:53:00,
2013-08-18 02:54:00,61.3,56.1,30.07,ESE,111,0.0,0.0,83,0.00,,SKC,0.00,VWS V14.01,2013-08-18 07:54:00,
2013-08-18 02:57:00,61.3,56.1,30.07,ESE,111,0.0,0.0,83,0.00,,SKC,0.00,VWS V14.01,2013-08-18 07:57:00,
2013-08-18 02:58:00,61.3,56.4,30.07,ESE,111,0.0,0.0,84,0.00,,SKC,0.00,VWS V14.01,2013-08-18 07:58:00,
2013-08-18 02:59:00,61.3,56.4,30.07,ESE,111,0.0,0.0,84,0.00,,SKC,0.00,VWS V14.01,2013-08-18 07:59:00,
2013-08-18 03:00:00,61.3,56.4,30.07,ESE,112,0.0,0.0,84,0.00,,---,0.00,VWS V14.01,2013-08-18 08:00:00,
2013-08-18 03:02:00,61.2,56.3,30.07,ESE,111,0.0,0.0,84,0.00,,SKC,0.00,VWS V14.01,2013-08-18 08:02:00,
2013-08-18 03:03:00,61.2,56.3,30.07,ESE,111,0.0,0.0,84,0.00,,SKC,0.00,VWS V14.01,2013-08-18 08:03:00,
2013-08-18 03:04:00,61.2,56.3,30.07,ESE,111,0.0,0.0,84,0.00,,SKC,0.00,VWS V14.01,2013-08-18 08:04:00,
2013-08-18 03:07:00,61.2,56.3,30.07,ESE,111,0.0,0.0,84,0.00,,SKC,0.00,VWS V14.01,2013-08-18 08:07:00,
2013-08-18 03:08:00,61.2,56.3,30.07,ESE,111,0.0,0.0,84,0.00,,SKC,0.00,VWS V14.01,2013-08-18 08:08:00,
2013-08-18 03:09:00,61.2,56.3,30.07,ESE,111,0.0,0.0,84,0.00,,SKC,0.00,VWS V14.01,2013-08-18 08:09:00,
2013-08-18 03:10:00,61.2,56.3,30.07,ESE,112,0.0,0.0,84,0.00,,---,0.00,VWS V14.01,2013-08-18 08:10:00,
2013-08-18 03:12:00,61.2,56.3,30.07,ESE,111,0.0,0.0,84,0.00,,SKC,0.00,VWS V14.01,2013-08-18 08:12:00,
2013-08-18 03:13:00,61.2,56.3,30.07,ESE,111,0.0,0.0,84,0.00,,SKC,0.00,VWS V14.01,2013-08-18 08:13:00,
2013-08-18 03:14:00,61.2,56.3,30.07,ESE,111,0.0,0.0,84,0.00,,SKC,0.00,VWS V14.01,2013-08-18 08:14:00,
2013-08-18 03:17:00,61.0,56.1,30.07,ESE,111,0.0,0.0,84,0.00,,SKC,0.00,VWS V14.01,2013-08-18 08:17:00,
2013-08-18 03:18:00,61.0,56.1,30.07,ESE,111,0.0,0.0,84,0.00,,SKC,0.00,VWS V14.01,2013-08-18 08:18:00,
2013-08-18 03:19:00,61.0,56.1,30.07,ESE,111,0.0,0.0,84,0.00,,SKC,0.00,VWS V14.01,2013-08-18 08:19:00,
2013-08-18 03:20:00,61.0,56.1,30.07,ESE,112,0.0,0.0,84,0.00,,---,0.00,VWS V14.01,2013-08-18 08:20:00,
2013-08-18 03:22:00,61.0,56.1,30.07,ESE,111,0.0,0.0,84,0.00,,SKC,0.00,VWS V14.01,2013-08-18 08:22:00,
2013-08-18 03:23:00,61.0,56.1,30.07,ESE,111,0.0,0.0,84,0.00,,SKC,0.00,VWS V14.01,2013-08-18 08:23:00,
2013-08-18 03:24:00,61.0,56.1,30.07,ESE,111,0.0,0.0,84,0.00,,SKC,0.00,VWS V14.01,2013-08-18 08:24:00,
2013-08-18 03:27:00,61.0,56.5,30.07,ESE,111,0.0,0.0,85,0.00,,SKC,0.00,VWS V14.01,2013-08-18 08:27:00,
2013-08-18 03:28:00,61.0,56.5,30.07,ESE,111,0.0,0.0,85,0.00,,SKC,0.00,VWS V14.01,2013-08-18 08:28:00,
2013-08-18 03:29:00,60.9,56.4,30.07,ESE,111,0.0,0.0,85,0.00,,SKC,0.00,VWS V14.01,2013-08-18 08:29:00,
2013-08-18 03:30:00,60.9,56.4,30.07,ESE,112,0.0,0.0,85,0.00,,---,0.00,VWS V14.01,2013-08-18 08:30:00,
2013-08-18 03:32:00,60.9,56.4,30.07,ESE,111,0.0,0.0,85,0.00,,SKC,0.00,VWS V14.01,2013-08-18 08:32:00,
2013-08-18 03:33:00,60.9,56.4,30.07,ESE,111,0.0,0.0,85,0.00,,SKC,0.00,VWS V14.01,2013-08-18 08:33:00,
2013-08-18 03:34:00,60.9,56.4,30.07,ESE,111,0.0,0.0,85,0.00,,SKC,0.00,VWS V14.01,2013-08-18 08:34:00,
2013-08-18 03:35:00,60.7,56.2,30.07,ESE,111,0.0,0.0,85,0.00,,SKC,0.00,VWS V14.01,2013-08-18 08:35:00,
2013-08-18 03:37:00,60.7,56.2,30.07,ESE,111,0.0,0.0,85,0.00,,SKC,0.00,VWS V14.01,2013-08-18 08:37:00,
2013-08-18 03:38:00,60.7,56.5,30.07,ESE,111,0.0,0.0,86,0.00,,SKC,0.00,VWS V14.01,2013-08-18 08:38:00,
2013-08-18 03:39:00,60.7,56.5,30.07,ESE,111,0.0,0.0,86,0.00,,SKC,0.00,VWS V14.01,2013-08-18 08:39:00,
2013-08-18 03:40:00,60.7,56.5,30.07,ESE,111,0.0,0.0,86,0.00,,SKC,0.00,VWS V14.01,2013-08-18 08:40:00,
2013-08-18 03:42:00,60.7,56.5,30.07,ESE,111,0.0,0.0,86,0.00,,SKC,0.00,VWS V14.01,2013-08-18 08:42:00,
2013-08-18 03:43:00,60.9,56.7,30.07,ESE,111,0.0,0.0,86,0.00,,SKC,0.00,VWS V14.01,2013-08-18 08:43:00,
2013-08-18 03:44:00,60.9,56.7,30.07,ESE,111,0.0,0.0,86,0.00,,SKC,0.00,VWS V14.01,2013-08-18 08:44:00,
2013-08-18 03:45:00,60.9,56.7,30.07,ESE,111,0.0,0.0,86,0.00,,SKC,0.00,VWS V14.01,2013-08-18 08:45:00,
2013-08-18 03:47:00,60.9,56.7,30.07,ESE,111,0.0,0.0,86,0.00,,SKC,0.00,VWS V14.01,2013-08-18 08:47:00,
2013-08-18 03:49:00,61.0,56.5,30.07,ESE,111,0.0,0.0,85,0.00,,SKC,0.00,VWS V14.01,2013-08-18 08:49:00,
2013-08-18 03:50:00,61.0,56.5,30.07,ESE,111,0.0,0.0,85,0.00,,SKC,0.00,VWS V14.01,2013-08-18 08:50:00,
2013-08-18 03:52:00,61.0,56.5,30.07,ESE,111,0.0,0.0,85,0.00,,SKC,0.00,VWS V14.01,2013-08-18 08:52:00,
2013-08-18 03:54:00,61.0,56.5,30.07,ESE,111,0.0,0.0,85,0.00,,SKC,0.00,VWS V14.01,2013-08-18 08:54:00,
2013-08-18 03:55:00,61.0,56.5,30.07,ESE,111,0.0,0.0,85,0.00,,SKC,0.00,VWS V14.01,2013-08-18 08:55:00,
2013-08-18 03:57:00,61.0,56.5,30.07,ESE,111,0.0,0.0,85,0.00,,SKC,0.00,VWS V14.01,2013-08-18 08:57:00,
2013-08-18 03:59:00,60.9,56.4,30.07,ESE,111,0.0,0.0,85,0.00,,SKC,0.00,VWS V14.01,2013-08-18 08:59:00,
2013-08-18 04:00:00,60.9,56.4,30.07,ESE,111,0.0,0.0,85,0.00,,SKC,0.00,VWS V14.01,2013-08-18 09:00:00,
2013-08-18 04:02:00,60.9,56.4,30.07,ESE,111,0.0,0.0,85,0.00,,SKC,0.00,VWS V14.01,2013-08-18 09:02:00,
2013-08-18 04:04:00,60.7,56.2,30.07,ESE,111,0.0,0.0,85,0.00,,SKC,0.00,VWS V14.01,2013-08-18 09:04:00,
2013-08-18 04:05:00,60.5,56.3,30.07,ESE,111,0.0,0.0,86,0.00,,SKC,0.00,VWS V14.01,2013-08-18 09:05:00,
2013-08-18 04:07:00,60.5,56.3,30.07,ESE,111,0.0,0.0,86,0.00,,SKC,0.00,VWS V14.01,2013-08-18 09:07:00,
2013-08-18 04:09:00,60.4,56.2,30.07,ESE,111,0.0,0.0,86,0.00,,SKC,0.00,VWS V14.01,2013-08-18 09:09:00,
2013-08-18 04:10:00,60.2,56.0,30.07,ESE,111,0.0,0.0,86,0.00,,SKC,0.00,VWS V14.01,2013-08-18 09:10:00,
2013-08-18 04:12:00,60.1,56.2,30.07,ESE,111,0.0,0.0,87,0.00,,SKC,0.00,VWS V14.01,2013-08-18 09:12:00,
2013-08-18 04:14:00,60.1,56.2,30.07,ESE,111,0.0,0.0,87,0.00,,SKC,0.00,VWS V14.01,2013-08-18 09:14:00,
2013-08-18 04:15:00,60.1,56.2,30.07,ESE,111,0.0,0.0,87,0.00,,SKC,0.00,VWS V14.01,2013-08-18 09:15:00,
2013-08-18 04:17:00,59.9,56.3,30.07,ESE,111,0.0,0.0,88,0.00,,SKC,0.00,VWS V14.01,2013-08-18 09:17:00,
2013-08-18 04:19:00,59.9,56.3,30.07,ESE,111,0.0,0.0,88,0.00,,SKC,0.00,VWS V14.01,2013-08-18 09:19:00,
2013-08-18 04:20:00,59.9,56.3,30.07,ESE,111,0.0,0.0,88,0.00,,SKC,0.00,VWS V14.01,2013-08-18 09:20:00,
2013-08-18 04:22:00,59.8,56.2,30.07,ESE,111,0.0,0.0,88,0.00,,SKC,0.00,VWS V14.01,2013-08-18 09:22:00,
2013-08-18 04:24:00,59.8,56.6,30.07,ESE,111,0.0,0.0,89,0.00,,SKC,0.00,VWS V14.01,2013-08-18 09:24:00,
2013-08-18 04:25:00,59.8,56.6,30.07,ESE,111,0.0,0.0,89,0.00,,SKC,0.00,VWS V14.01,2013-08-18 09:25:00,
2013-08-18 04:27:00,59.6,56.4,30.07,ESE,111,0.0,0.0,89,0.00,,SKC,0.00,VWS V14.01,2013-08-18 09:27:00,
2013-08-18 04:29:00,59.6,56.4,30.07,ESE,111,0.0,0.0,89,0.00,,SKC,0.00,VWS V14.01,2013-08-18 09:29:00,
2013-08-18 04:30:00,59.6,56.4,30.07,ESE,111,0.0,0.0,89,0.00,,SKC,0.00,VWS V14.01,2013-08-18 09:30:00,
2013-08-18 04:32:00,59.6,56.7,30.07,ESE,111,0.0,0.0,90,0.00,,SKC,0.00,VWS V14.01,2013-08-18 09:32:00,
2013-08-18 04:34:00,59.6,56.7,30.07,ESE,111,0.0,0.0,90,0.00,,SKC,0.00,VWS V14.01,2013-08-18 09:34:00,
2013-08-18 04:35:00,59.6,56.7,30.07,ESE,111,0.0,0.0,90,0.00,,SKC,0.00,VWS V14.01,2013-08-18 09:35:00,
2013-08-18 04:37:00,59.6,56.7,30.07,ESE,111,0.0,1.0,90,0.00,,SKC,0.00,VWS V14.01,2013-08-18 09:37:00,
2013-08-18 04:39:00,59.6,56.7,30.07,ESE,111,0.0,1.0,90,0.00,,SKC,0.00,VWS V14.01,2013-08-18 09:39:00,
2013-08-18 04:40:00,59.6,56.7,30.07,ESE,111,0.0,1.0,90,0.00,,SKC,0.00,VWS V14.01,2013-08-18 09:40:00,
2013-08-18 04:42:00,59.5,56.6,30.07,ESE,111,0.0,0.0,90,0.00,,SKC,0.00,VWS V14.01,2013-08-18 09:42:00,
2013-08-18 04:44:00,59.5,56.6,30.07,ESE,111,0.0,0.0,90,0.00,,SKC,0.00,VWS V14.01,2013-08-18 09:44:00,
2013-08-18 04:45:00,59.5,56.6,30.07,ESE,111,0.0,0.0,90,0.00,,SKC,0.00,VWS V14.01,2013-08-18 09:45:00,
2013-08-18 04:48:00,59.5,56.6,30.07,ESE,111,0.0,0.0,90,0.00,,SKC,0.00,VWS V14.01,2013-08-18 09:48:00,
2013-08-18 04:49:00,59.5,56.6,30.07,ESE,111,0.0,0.0,90,0.00,,SKC,0.00,VWS V14.01,2013-08-18 09:49:00,
2013-08-18 04:50:00,59.5,56.6,30.07,ESE,111,0.0,0.0,90,0.00,,SKC,0.00,VWS V14.01,2013-08-18 09:50:00,
2013-08-18 04:53:00,59.5,56.6,30.07,ESE,111,0.0,0.0,90,0.00,,SKC,0.00,VWS V14.01,2013-08-18 09:53:00,
2013-08-18 04:54:00,59.5,56.6,30.07,ESE,111,0.0,0.0,90,0.00,,SKC,0.00,VWS V14.01,2013-08-18 09:54:00,
2013-08-18 04:55:00,59.5,56.6,30.07,ESE,111,0.0,0.0,90,0.00,,SKC,0.00,VWS V14.01,2013-08-18 09:55:00,
2013-08-18 04:58:00,59.5,56.6,30.07,ESE,111,0.0,0.0,90,0.00,,SKC,0.00,VWS V14.01,2013-08-18 09:58:00,
2013-08-18 04:59:00,59.5,56.6,30.07,ESE,111,0.0,0.0,90,0.00,,SKC,0.00,VWS V14.01,2013-08-18 09:59:00,
2013-08-18 05:00:00,59.3,56.4,30.07,ESE,111,0.0,0.0,90,0.00,,SKC,0.00,VWS V14.01,2013-08-18 10:00:00,
2013-08-18 05:03:00,59.3,56.4,30.07,ESE,111,0.0,0.0,90,0.00,,SKC,0.00,VWS V14.01,2013-08-18 10:03:00,
2013-08-18 05:04:00,59.3,56.4,30.07,ESE,111,0.0,0.0,90,0.00,,SKC,0.00,VWS V14.01,2013-08-18 10:04:00,
2013-08-18 05:05:00,59.3,56.4,30.07,ESE,111,0.0,0.0,90,0.00,,SKC,0.00,VWS V14.01,2013-08-18 10:05:00,
2013-08-18 05:06:00,59.3,56.4,30.07,ESE,111,0.0,0.0,90,0.00,,SKC,0.00,VWS V14.01,2013-08-18 10:06:00,
2013-08-18 05:08:00,59.3,56.4,30.07,ESE,111,0.0,0.0,90,0.00,,SKC,0.00,VWS V14.01,2013-08-18 10:08:00,
2013-08-18 05:09:00,59.3,56.4,30.07,ESE,111,0.0,0.0,90,0.00,,SKC,0.00,VWS V14.01,2013-08-18 10:09:00,
2013-08-18 05:10:00,59.3,56.4,30.07,ESE,111,0.0,0.0,90,0.00,,SKC,0.00,VWS V14.01,2013-08-18 10:10:00,
2013-08-18 05:11:00,59.3,56.4,30.07,ESE,111,0.0,0.0,90,0.00,,SKC,0.00,VWS V14.01,2013-08-18 10:11:00,
2013-08-18 05:13:00,59.2,56.3,30.07,ESE,111,0.0,0.0,90,0.00,,SKC,0.00,VWS V14.01,2013-08-18 10:13:00,
2013-08-18 05:14:00,59.2,56.3,30.07,ESE,111,0.0,0.0,90,0.00,,SKC,0.00,VWS V14.01,2013-08-18 10:14:00,
2013-08-18 05:15:00,59.2,56.6,30.07,ESE,111,0.0,0.0,91,0.00,,SKC,0.00,VWS V14.01,2013-08-18 10:15:00,
2013-08-18 05:16:00,59.2,56.6,30.07,ESE,111,0.0,0.0,91,0.00,,SKC,0.00,VWS V14.01,2013-08-18 10:16:00,
2013-08-18 05:18:00,59.3,56.7,30.07,ESE,111,0.0,0.0,91,0.00,,SKC,0.00,VWS V14.01,2013-08-18 10:18:00,
2013-08-18 05:19:00,59.3,56.7,30.07,ESE,111,0.0,0.0,91,0.00,,SKC,0.00,VWS V14.01,2013-08-18 10:19:00,
2013-08-18 05:20:00,59.3,56.7,30.07,ESE,111,0.0,0.0,91,0.00,,SKC,0.00,VWS V14.01,2013-08-18 10:20:00,
2013-08-18 05:21:00,59.3,56.7,30.07,ESE,111,0.0,0.0,91,0.00,,SKC,0.00,VWS V14.01,2013-08-18 10:21:00,
2013-08-18 05:23:00,59.3,56.7,30.07,ESE,111,0.0,0.0,91,0.00,,SKC,0.00,VWS V14.01,2013-08-18 10:23:00,
2013-08-18 05:24:00,59.3,56.7,30.07,ESE,111,0.0,0.0,91,0.00,,SKC,0.00,VWS V14.01,2013-08-18 10:24:00,
2013-08-18 05:25:00,59.3,56.4,30.07,ESE,111,0.0,0.0,90,0.00,,SKC,0.00,VWS V14.01,2013-08-18 10:25:00,
2013-08-18 05:26:00,59.3,56.4,30.07,ESE,111,0.0,0.0,90,0.00,,SKC,0.00,VWS V14.01,2013-08-18 10:26:00,
2013-08-18 05:28:00,59.3,56.4,30.07,ESE,111,0.0,0.0,90,0.00,,SKC,0.00,VWS V14.01,2013-08-18 10:28:00,
2013-08-18 05:29:00,59.3,56.4,30.07,ESE,111,0.0,0.0,90,0.00,,SKC,0.00,VWS V14.01,2013-08-18 10:29:00,
2013-08-18 05:30:00,59.3,56.4,30.07,ESE,111,0.0,0.0,90,0.00,,SKC,0.00,VWS V14.01,2013-08-18 10:30:00,
2013-08-18 05:31:00,59.2,56.3,30.07,ESE,111,0.0,0.0,90,0.00,,SKC,0.00,VWS V14.01,2013-08-18 10:31:00,
2013-08-18 05:33:00,59.2,56.6,30.07,ESE,111,0.0,0.0,91,0.00,,SKC,0.00,VWS V14.01,2013-08-18 10:33:00,
2013-08-18 05:34:00,59.2,56.6,30.07,ESE,111,0.0,0.0,91,0.00,,SKC,0.00,VWS V14.01,2013-08-18 10:34:00,
2013-08-18 05:35:00,59.2,56.6,30.07,ESE,111,0.0,0.0,91,0.00,,SKC,0.00,VWS V14.01,2013-08-18 10:35:00,
2013-08-18 05:36:00,59.2,56.6,30.07,ESE,111,0.0,0.0,91,0.00,,SKC,0.00,VWS V14.01,2013-08-18 10:36:00,
2013-08-18 05:38:00,59.0,56.4,30.07,ESE,111,0.0,0.0,91,0.00,,SKC,0.00,VWS V14.01,2013-08-18 10:38:00,
2013-08-18 05:40:00,59.0,56.4,30.07,ESE,111,0.0,0.0,91,0.00,,SKC,0.00,VWS V14.01,2013-08-18 10:40:00,
2013-08-18 05:41:00,59.0,56.4,30.07,ESE,111,0.0,0.0,91,0.00,,SKC,0.00,VWS V14.01,2013-08-18 10:41:00,
2013-08-18 05:43:00,59.0,56.4,30.07,ESE,111,0.0,0.0,91,0.00,,SKC,0.00,VWS V14.01,2013-08-18 10:43:00,
2013-08-18 05:45:00,59.0,56.4,30.07,ESE,111,4.0,4.0,91,0.00,,SKC,0.00,VWS V14.01,2013-08-18 10:45:00,
2013-08-18 05:46:00,59.0,56.4,30.08,ESE,111,4.0,4.0,91,0.00,,SKC,0.00,VWS V14.01,2013-08-18 10:46:00,
2013-08-18 05:48:00,58.9,56.3,30.08,ESE,111,4.0,5.0,91,0.00,,SKC,0.00,VWS V14.01,2013-08-18 10:48:00,
2013-08-18 05:50:00,58.9,56.6,30.08,ESE,111,4.0,5.0,92,0.00,,SKC,0.00,VWS V14.01,2013-08-18 10:50:00,
2013-08-18 05:51:00,58.9,56.6,30.08,ESE,111,3.0,5.0,92,0.00,,SKC,0.00,VWS V14.01,2013-08-18 10:51:00,
2013-08-18 05:53:00,58.9,56.6,30.08,ESE,111,3.0,4.0,92,0.00,,SKC,0.00,VWS V14.01,2013-08-18 10:53:00,
2013-08-18 05:55:00,58.9,56.6,30.08,ESE,111,4.0,4.0,92,0.00,,SKC,0.00,VWS V14.01,2013-08-18 10:55:00,
2013-08-18 05:56:00,58.9,56.6,30.08,ESE,111,2.0,4.0,92,0.00,,SKC,0.00,VWS V14.01,2013-08-18 10:56:00,
2013-08-18 05:59:00,58.9,56.6,30.08,ESE,111,0.0,4.0,92,0.00,,SKC,0.00,VWS V14.01,2013-08-18 10:59:00,
2013-08-18 06:00:00,58.9,56.6,30.08,ESE,111,0.0,4.0,92,0.00,,SKC,0.00,VWS V14.01,2013-08-18 11:00:00,
2013-08-18 06:01:00,58.9,56.6,30.08,ESE,111,0.0,4.0,92,0.00,,SKC,0.00,VWS V14.01,2013-08-18 11:01:00,
2013-08-18 06:04:00,58.9,56.6,30.08,ESE,111,0.0,0.0,92,0.00,,SKC,0.00,VWS V14.01,2013-08-18 11:04:00,
2013-08-18 06:05:00,58.7,56.4,30.08,ESE,111,0.0,0.0,92,0.00,,SKC,0.00,VWS V14.01,2013-08-18 11:05:00,
2013-08-18 06:06:00,58.7,56.4,30.08,ESE,111,0.0,0.0,92,0.00,,SKC,0.00,VWS V14.01,2013-08-18 11:06:00,
2013-08-18 06:09:00,58.7,56.4,30.08,ESE,111,0.0,0.0,92,0.00,,SKC,0.00,VWS V14.01,2013-08-18 11:09:00,
2013-08-18 06:10:00,58.7,56.4,30.08,ESE,111,0.0,0.0,92,0.00,,SKC,0.00,VWS V14.01,2013-08-18 11:10:00,
2013-08-18 06:11:00,58.7,56.4,30.08,ESE,111,0.0,0.0,92,0.00,,SKC,0.00,VWS V14.01,2013-08-18 11:11:00,
2013-08-18 06:14:00,58.7,56.7,30.08,ESE,111,0.0,0.0,93,0.00,,SKC,0.00,VWS V14.01,2013-08-18 11:14:00,
2013-08-18 06:15:00,58.6,56.6,30.08,ESE,111,0.0,0.0,93,0.00,,SKC,0.00,VWS V14.01,2013-08-18 11:15:00,
2013-08-18 06:16:00,58.6,56.6,30.08,ESE,111,0.0,0.0,93,0.00,,SKC,0.00,VWS V14.01,2013-08-18 11:16:00,
2013-08-18 06:19:00,58.6,56.6,30.08,ESE,111,0.0,0.0,93,0.00,,SKC,0.00,VWS V14.01,2013-08-18 11:19:00,
2013-08-18 06:20:00,58.6,56.6,30.08,ESE,111,0.0,0.0,93,0.00,,SKC,0.00,VWS V14.01,2013-08-18 11:20:00,
2013-08-18 06:21:00,58.6,56.6,30.08,ESE,111,0.0,0.0,93,0.00,,SKC,0.00,VWS V14.01,2013-08-18 11:21:00,
2013-08-18 06:24:00,58.6,56.6,30.08,ESE,111,0.0,0.0,93,0.00,,SKC,0.00,VWS V14.01,2013-08-18 11:24:00,
2013-08-18 06:25:00,58.4,56.4,30.08,ESE,111,0.0,0.0,93,0.00,,SKC,0.00,VWS V14.01,2013-08-18 11:25:00,
2013-08-18 06:26:00,58.4,56.4,30.08,ESE,111,0.0,0.0,93,0.00,,SKC,0.00,VWS V14.01,2013-08-18 11:26:00,
2013-08-18 06:29:00,58.4,56.4,30.08,ESE,111,0.0,0.0,93,0.00,,SKC,0.00,VWS V14.01,2013-08-18 11:29:00,
2013-08-18 06:30:00,58.4,56.4,30.08,ESE,111,0.0,0.0,93,0.00,,SKC,0.00,VWS V14.01,2013-08-18 11:30:00,
2013-08-18 06:31:00,58.4,56.4,30.08,ESE,111,0.0,0.0,93,0.00,,SKC,0.00,VWS V14.01,2013-08-18 11:31:00,
2013-08-18 06:34:00,58.4,56.4,30.08,ESE,111,0.0,0.0,93,0.00,,SKC,0.00,VWS V14.01,2013-08-18 11:34:00,
2013-08-18 06:35:00,58.4,56.4,30.08,ESE,111,0.0,0.0,93,0.00,,SKC,0.00,VWS V14.01,2013-08-18 11:35:00,
2013-08-18 06:36:00,58.4,56.4,30.08,ESE,111,0.0,0.0,93,0.00,,SKC,0.00,VWS V14.01,2013-08-18 11:36:00,
2013-08-18 06:39:00,58.4,56.4,30.08,ESE,111,0.0,4.0,93,0.00,,SKC,0.00,VWS V14.01,2013-08-18 11:39:00,
2013-08-18 06:40:00,58.4,56.4,30.08,ESE,111,0.0,4.0,93,0.00,,SKC,0.00,VWS V14.01,2013-08-18 11:40:00,
2013-08-18 06:41:00,58.4,56.4,30.08,ESE,107,0.0,4.0,93,0.00,,SKC,0.00,VWS V14.01,2013-08-18 11:41:00,
2013-08-18 06:44:00,58.6,56.6,30.08,ESE,104,0.0,0.0,93,0.00,,SKC,0.00,VWS V14.01,2013-08-18 11:44:00,
2013-08-18 06:45:00,58.6,56.6,30.08,ESE,104,0.0,0.0,93,0.00,,SKC,0.00,VWS V14.01,2013-08-18 11:45:00,
2013-08-18 06:46:00,58.6,56.6,30.08,ESE,104,0.0,0.0,93,0.00,,SKC,0.00,VWS V14.01,2013-08-18 11:46:00,
2013-08-18 06:49:00,58.7,56.7,30.08,ESE,104,0.0,0.0,93,0.00,,SKC,0.00,VWS V14.01,2013-08-18 11:49:00,
2013-08-18 06:50:00,58.7,56.7,30.08,ESE,104,0.0,0.0,93,0.00,,SKC,0.00,VWS V14.01,2013-08-18 11:50:00,
2013-08-18 06:51:00,58.7,56.7,30.08,ESE,104,0.0,0.0,93,0.00,,SKC,0.00,VWS V14.01,2013-08-18 11:51:00,
2013-08-18 06:54:00,58.7,56.7,30.08,ESE,104,0.0,0.0,93,0.00,,SKC,0.00,VWS V14.01,2013-08-18 11:54:00,
2013-08-18 06:55:00,58.7,56.7,30.08,ESE,104,0.0,0.0,93,0.00,,SKC,0.00,VWS V14.01,2013-08-18 11:55:00,
2013-08-18 06:56:00,58.7,56.7,30.08,ESE,104,0.0,0.0,93,0.00,,SKC,0.00,VWS V14.01,2013-08-18 11:56:00,
2013-08-18 06:59:00,58.9,56.9,30.08,ESE,104,0.0,0.0,93,0.00,,SKC,0.00,VWS V14.01,2013-08-18 11:59:00,
2013-08-18 07:00:00,58.9,56.9,30.09,ESE,104,0.0,0.0,93,0.00,,SKC,0.00,VWS V14.01,2013-08-18 12:00:00,
2013-08-18 07:01:00,58.9,56.9,30.09,ESE,104,0.0,0.0,93,0.00,,SKC,0.00,VWS V14.01,2013-08-18 12:01:00,
2013-08-18 07:04:00,59.0,57.0,30.09,ESE,104,0.0,0.0,93,0.00,,SKC,0.00,VWS V14.01,2013-08-18 12:04:00,
2013-08-18 07:05:00,59.0,57.0,30.09,ESE,105,0.0,0.0,93,0.00,,SKC,0.00,VWS V14.01,2013-08-18 12:05:00,
2013-08-18 07:06:00,59.0,57.0,30.09,ESE,105,0.0,0.0,93,0.00,,SKC,0.00,VWS V14.01,2013-08-18 12:06:00,
2013-08-18 07:09:00,59.2,57.2,30.09,ESE,104,0.0,0.0,93,0.00,,SKC,0.00,VWS V14.01,2013-08-18 12:09:00,
2013-08-18 07:10:00,59.2,57.2,30.09,ESE,105,0.0,0.0,93,0.00,,SKC,0.00,VWS V14.01,2013-08-18 12:10:00,
2013-08-18 07:11:00,59.2,57.2,30.09,ESE,104,0.0,0.0,93,0.00,,SKC,0.00,VWS V14.01,2013-08-18 12:11:00,
2013-08-18 07:12:00,59.2,57.2,30.09,ESE,105,0.0,0.0,93,0.00,,SKC,0.00,VWS V14.01,2013-08-18 12:12:00,
2013-08-18 07:14:00,59.3,57.3,30.09,ESE,104,0.0,0.0,93,0.00,,SKC,0.00,VWS V14.01,2013-08-18 12:14:00,
2013-08-18 07:15:00,59.3,57.0,30.09,ESE,105,0.0,0.0,92,0.00,,SKC,0.00,VWS V14.01,2013-08-18 12:15:00,
2013-08-18 07:16:00,59.3,57.0,30.09,ESE,105,0.0,0.0,92,0.00,,SKC,0.00,VWS V14.01,2013-08-18 12:16:00,
2013-08-18 07:17:00,59.3,57.0,30.09,ESE,104,0.0,0.0,92,0.00,,SKC,0.00,VWS V14.01,2013-08-18 12:17:00,
2013-08-18 07:19:00,59.5,57.2,30.09,ESE,105,0.0,0.0,92,0.00,,SKC,0.00,VWS V14.01,2013-08-18 12:19:00,
2013-08-18 07:20:00,59.5,57.2,30.09,ESE,105,0.0,0.0,92,0.00,,SKC,0.00,VWS V14.01,2013-08-18 12:20:00,
2013-08-18 07:21:00,59.5,57.2,30.09,ESE,105,0.0,0.0,92,0.00,,SKC,0.00,VWS V14.01,2013-08-18 12:21:00,
2013-08-18 07:22:00,59.5,57.2,30.09,ESE,104,0.0,0.0,92,0.00,,SKC,0.00,VWS V14.01,2013-08-18 12:22:00,
2013-08-18 07:24:00,59.5,56.9,30.09,ESE,105,0.0,0.0,91,0.00,,SKC,0.00,VWS V14.01,2013-08-18 12:24:00,
2013-08-18 07:25:00,59.5,56.9,30.09,ESE,104,0.0,0.0,91,0.00,,SKC,0.00,VWS V14.01,2013-08-18 12:25:00,
2013-08-18 07:26:00,59.5,56.9,30.09,ESE,104,0.0,0.0,91,0.00,,SKC,0.00,VWS V14.01,2013-08-18 12:26:00,
2013-08-18 07:27:00,59.5,56.9,30.09,ESE,104,0.0,0.0,91,0.00,,SKC,0.00,VWS V14.01,2013-08-18 12:27:00,
2013-08-18 07:29:00,59.6,57.0,30.09,ESE,105,0.0,0.0,91,0.00,,SKC,0.00,VWS V14.01,2013-08-18 12:29:00,
2013-08-18 07:30:00,59.6,57.0,30.09,ESE,112,0.0,0.0,91,0.00,,---,0.00,VWS V14.01,2013-08-18 12:30:00,
2013-08-18 07:31:00,59.6,57.0,30.09,ESE,105,0.0,0.0,91,0.00,,SKC,0.00,VWS V14.01,2013-08-18 12:31:00,
2013-08-18 07:32:00,59.6,57.0,30.09,ESE,105,0.0,0.0,91,0.00,,SKC,0.00,VWS V14.01,2013-08-18 12:32:00,
2013-08-18 07:34:00,59.6,57.0,30.09,ESE,105,0.0,0.0,91,0.00,,SKC,0.00,VWS V14.01,2013-08-18 12:34:00,
2013-08-18 07:36:00,59.8,57.2,30.09,ESE,104,0.0,0.0,91,0.00,,SKC,0.00,VWS V14.01,2013-08-18 12:36:00,
2013-08-18 07:37:00,59.8,57.2,30.09,ESE,104,0.0,0.0,91,0.00,,SKC,0.00,VWS V14.01,2013-08-18 12:37:00,
2013-08-18 07:39:00,59.8,57.2,30.09,ESE,104,0.0,0.0,91,0.00,,SKC,0.00,VWS V14.01,2013-08-18 12:39:00,
2013-08-18 07:40:00,59.8,57.2,30.09,ESE,112,0.0,0.0,91,0.00,,---,0.00,VWS V14.01,2013-08-18 12:40:00,
2013-08-18 07:41:00,59.8,57.2,30.09,ESE,105,0.0,0.0,91,0.00,,SKC,0.00,VWS V14.01,2013-08-18 12:41:00,
2013-08-18 07:42:00,59.8,57.2,30.09,ESE,105,0.0,0.0,91,0.00,,SKC,0.00,VWS V14.01,2013-08-18 12:42:00,
2013-08-18 07:44:00,59.8,57.2,30.09,ESE,105,0.0,0.0,91,0.00,,SKC,0.00,VWS V14.01,2013-08-18 12:44:00,
2013-08-18 07:46:00,59.8,57.2,30.10,ESE,105,0.0,0.0,91,0.00,,SKC,0.00,VWS V14.01,2013-08-18 12:46:00,
2013-08-18 07:47:00,59.9,57.3,30.10,ESE,105,0.0,0.0,91,0.00,,SKC,0.00,VWS V14.01,2013-08-18 12:47:00,
2013-08-18 07:49:00,60.1,57.5,30.10,ESE,104,0.0,0.0,91,0.00,,SKC,0.00,VWS V14.01,2013-08-18 12:49:00,
2013-08-18 07:50:00,60.1,57.8,30.10,ESE,112,0.0,0.0,92,0.00,,---,0.00,VWS V14.01,2013-08-18 12:50:00,
2013-08-18 07:51:00,60.1,57.5,30.10,ESE,104,0.0,0.0,91,0.00,,SKC,0.00,VWS V14.01,2013-08-18 12:51:00,
2013-08-18 07:52:00,60.2,57.9,30.10,ESE,105,0.0,0.0,92,0.00,,SKC,0.00,VWS V14.01,2013-08-18 12:52:00,
2013-08-18 07:54:00,60.5,58.2,30.10,ESE,105,0.0,0.0,92,0.00,,SKC,0.00,VWS V14.01,2013-08-18 12:54:00,
2013-08-18 07:56:00,60.7,58.4,30.10,ESE,105,0.0,0.0,92,0.00,,SKC,0.00,VWS V14.01,2013-08-18 12:56:00,
2013-08-18 07:57:00,60.9,58.6,30.10,ESE,105,0.0,0.0,92,0.00,,SKC,0.00,VWS V14.01,2013-08-18 12:57:00,
2013-08-18 07:59:00,61.2,58.6,30.10,ESE,105,0.0,0.0,91,0.00,,SKC,0.00,VWS V14.01,2013-08-18 12:59:00,
2013-08-18 08:00:00,61.3,58.7,30.10,ESE,112,0.0,0.0,91,0.00,,---,0.00,VWS V14.01,2013-08-18 13:00:00,
2013-08-18 08:01:00,61.3,58.7,30.10,ESE,105,0.0,0.0,91,0.00,,SKC,0.00,VWS V14.01,2013-08-18 13:01:00,
2013-08-18 08:02:00,61.3,58.7,30.10,ESE,105,0.0,0.0,91,0.00,,SKC,0.00,VWS V14.01,2013-08-18 13:02:00,
2013-08-18 08:04:00,61.6,58.6,30.10,ESE,104,0.0,0.0,90,0.00,,SKC,0.00,VWS V14.01,2013-08-18 13:04:00,
2013-08-18 08:06:00,61.6,58.6,30.10,ESE,105,0.0,0.0,90,0.00,,SKC,0.00,VWS V14.01,2013-08-18 13:06:00,
2013-08-18 08:07:00,61.8,58.8,30.10,ESE,105,0.0,0.0,90,0.00,,SKC,0.00,VWS V14.01,2013-08-18 13:07:00,
2013-08-18 08:10:00,62.0,58.7,30.10,ESE,105,0.0,0.0,89,0.00,,SKC,0.00,VWS V14.01,2013-08-18 13:10:00,
2013-08-18 08:11:00,62.0,58.7,30.10,ESE,104,0.0,0.0,89,0.00,,SKC,0.00,VWS V14.01,2013-08-18 13:11:00,
2013-08-18 08:12:00,62.0,58.7,30.10,ESE,104,0.0,0.0,89,0.00,,SKC,0.00,VWS V14.01,2013-08-18 13:12:00,
2013-08-18 08:15:00,62.0,58.4,30.10,ESE,104,0.0,0.0,88,0.00,,SKC,0.00,VWS V14.01,2013-08-18 13:15:00,
2013-08-18 08:16:00,62.0,58.4,30.11,ESE,104,0.0,0.0,88,0.00,,SKC,0.00,VWS V14.01,2013-08-18 13:16:00,
2013-08-18 08:17:00,62.0,58.4,30.11,ESE,104,0.0,0.0,88,0.00,,SKC,0.00,VWS V14.01,2013-08-18 13:17:00,
2013-08-18 08:20:00,62.3,58.7,30.11,ESE,104,0.0,0.0,88,0.00,,SKC,0.00,VWS V14.01,2013-08-18 13:20:00,
2013-08-18 08:21:00,62.4,59.1,30.11,ESE,104,0.0,0.0,89,0.00,,SKC,0.00,VWS V14.01,2013-08-18 13:21:00,
2013-08-18 08:22:00,62.6,59.3,30.11,ESE,104,0.0,0.0,89,0.00,,SKC,0.00,VWS V14.01,2013-08-18 13:22:00,
2013-08-18 08:25:00,62.9,59.3,30.11,ESE,104,0.0,0.0,88,0.00,,SKC,0.00,VWS V14.01,2013-08-18 13:25:00,
2013-08-18 08:26:00,62.9,59.3,30.11,ESE,104,0.0,0.0,88,0.00,,SKC,0.00,VWS V14.01,2013-08-18 13:26:00,
2013-08-18 08:27:00,62.9,59.0,30.11,ESE,105,0.0,0.0,87,0.00,,SKC,0.00,VWS V14.01,2013-08-18 13:27:00,
2013-08-18 08:30:00,63.1,58.8,30.11,ESE,105,0.0,0.0,86,0.00,,SKC,0.00,VWS V14.01,2013-08-18 13:30:00,
2013-08-18 08:31:00,63.1,58.8,30.11,ESE,105,0.0,0.0,86,0.00,,SKC,0.00,VWS V14.01,2013-08-18 13:31:00,
2013-08-18 08:32:00,63.2,59.0,30.11,ESE,105,0.0,0.0,86,0.00,,SKC,0.00,VWS V14.01,2013-08-18 13:32:00,
2013-08-18 08:35:00,63.4,59.2,30.11,ESE,105,0.0,0.0,86,0.00,,SKC,0.00,VWS V14.01,2013-08-18 13:35:00,
2013-08-18 08:36:00,63.4,58.8,30.11,ESE,105,0.0,0.0,85,0.00,,SKC,0.00,VWS V14.01,2013-08-18 13:36:00,
2013-08-18 08:37:00,63.5,58.9,30.11,ESE,108,4.0,5.0,85,0.00,,SKC,0.00,VWS V14.01,2013-08-18 13:37:00,
2013-08-18 08:38:00,63.5,58.9,30.11,ESE,108,3.0,5.0,85,0.00,,SKC,0.00,VWS V14.01,2013-08-18 13:38:00,
2013-08-18 08:40:00,63.7,59.1,30.11,ESE,108,0.0,5.0,85,0.00,,SKC,0.00,VWS V14.01,2013-08-18 13:40:00,
2013-08-18 08:41:00,63.9,59.0,30.11,ESE,109,0.0,0.0,84,0.00,,SKC,0.00,VWS V14.01,2013-08-18 13:41:00,
2013-08-18 08:42:00,63.9,59.0,30.11,ESE,109,0.0,0.0,84,0.00,,SKC,0.00,VWS V14.01,2013-08-18 13:42:00,
2013-08-18 08:43:00,63.9,59.0,30.11,ESE,109,0.0,0.0,84,0.00,,SKC,0.00,VWS V14.01,2013-08-18 13:43:00,
2013-08-18 08:45:00,64.2,59.3,30.11,ESE,109,0.0,0.0,84,0.00,,SKC,0.00,VWS V14.01,2013-08-18 13:45:00,
2013-08-18 08:46:00,64.3,59.4,30.11,ESE,109,0.0,0.0,84,0.00,,SKC,0.00,VWS V14.01,2013-08-18 13:46:00,
2013-08-18 08:47:00,64.5,59.6,30.11,ESE,109,0.0,0.0,84,0.00,,SKC,0.00,VWS V14.01,2013-08-18 13:47:00,
2013-08-18 08:48:00,64.7,59.8,30.11,ESE,109,0.0,0.0,84,0.00,,SKC,0.00,VWS V14.01,2013-08-18 13:48:00,
2013-08-18 08:50:00,64.7,59.4,30.11,ESE,111,2.0,5.0,83,0.00,,SKC,0.00,VWS V14.01,2013-08-18 13:50:00,
2013-08-18 08:51:00,64.8,59.5,30.11,ESE,110,0.0,0.0,83,0.00,,SKC,0.00,VWS V14.01,2013-08-18 13:51:00,
2013-08-18 08:52:00,64.8,59.5,30.11,ESE,111,0.0,0.0,83,0.00,,SKC,0.00,VWS V14.01,2013-08-18 13:52:00,
2013-08-18 08:53:00,65.0,59.4,30.11,ESE,111,0.0,0.0,82,0.00,,SKC,0.00,VWS V14.01,2013-08-18 13:53:00,
2013-08-18 08:55:00,65.3,59.7,30.11,ESE,111,0.0,0.0,82,0.00,,SKC,0.00,VWS V14.01,2013-08-18 13:55:00,
2013-08-18 08:56:00,65.3,59.3,30.11,ESE,111,0.0,0.0,81,0.00,,SKC,0.00,VWS V14.01,2013-08-18 13:56:00,
2013-08-18 08:57:00,65.5,59.9,30.11,ESE,111,0.0,0.0,82,0.00,,SKC,0.00,VWS V14.01,2013-08-18 13:57:00,
2013-08-18 08:58:00,65.6,60.0,30.11,ESE,111,0.0,0.0,82,0.00,,SKC,0.00,VWS V14.01,2013-08-18 13:58:00,
2013-08-18 09:00:00,66.0,60.0,30.11,ESE,111,0.0,0.0,81,0.00,,SKC,0.00,VWS V14.01,2013-08-18 14:00:00,
2013-08-18 09:01:00,66.0,60.0,30.11,ESE,111,0.0,0.0,81,0.00,,SKC,0.00,VWS V14.01,2013-08-18 14:01:00,
2013-08-18 09:02:00,66.1,59.8,30.11,ESE,111,0.0,0.0,80,0.00,,SKC,0.00,VWS V14.01,2013-08-18 14:02:00,
2013-08-18 09:03:00,66.1,59.8,30.11,ESE,111,0.0,0.0,80,0.00,,SKC,0.00,VWS V14.01,2013-08-18 14:03:00,
2013-08-18 09:05:00,66.6,60.2,30.11,ESE,111,0.0,0.0,80,0.00,,SKC,0.00,VWS V14.01,2013-08-18 14:05:00,
2013-08-18 09:06:00,66.6,60.2,30.11,ESE,111,0.0,0.0,80,0.00,,SKC,0.00,VWS V14.01,2013-08-18 14:06:00,
2013-08-18 09:07:00,66.8,60.4,30.11,ESE,111,0.0,0.0,80,0.00,,SKC,0.00,VWS V14.01,2013-08-18 14:07:00,
2013-08-18 09:08:00,66.8,60.4,30.11,ESE,111,0.0,0.0,80,0.00,,SKC,0.00,VWS V14.01,2013-08-18 14:08:00,
2013-08-18 09:10:00,67.3,60.6,30.11,ESE,111,0.0,0.0,79,0.00,,SKC,0.00,VWS V14.01,2013-08-18 14:10:00,
2013-08-18 09:12:00,67.4,60.3,30.11,ESE,112,4.0,5.0,78,0.00,,SKC,0.00,VWS V14.01,2013-08-18 14:12:00,
2013-08-18 09:13:00,67.4,60.3,30.11,ESE,112,5.0,5.0,78,0.00,,SKC,0.00,VWS V14.01,2013-08-18 14:13:00,
2013-08-18 09:15:00,67.8,60.3,30.11,ESE,119,4.0,7.0,77,0.00,,SKC,0.00,VWS V14.01,2013-08-18 14:15:00,
2013-08-18 09:17:00,67.9,60.4,30.11,ESE,118,4.0,7.0,77,0.00,,SKC,0.00,VWS V14.01,2013-08-18 14:17:00,
2013-08-18 09:18:00,67.9,60.4,30.11,ESE,118,2.0,7.0,77,0.00,,SKC,0.00,VWS V14.01,2013-08-18 14:18:00,
2013-08-18 09:20:00,68.1,60.3,30.11,ESE,120,6.0,8.0,76,0.00,,SKC,0.00,VWS V14.01,2013-08-18 14:20:00,
2013-08-18 09:22:00,68.1,60.3,30.11,ESE,121,5.0,7.0,76,0.00,,SKC,0.00,VWS V14.01,2013-08-18 14:22:00,
2013-08-18 09:23:00,68.1,60.3,30.11,ESE,121,2.0,7.0,76,0.00,,SKC,0.00,VWS V14.01,2013-08-18 14:23:00,
2013-08-18 09:26:00,68.4,60.5,30.11,ESE,123,5.0,7.0,76,0.00,,SKC,0.00,VWS V14.01,2013-08-18 14:26:00,
2013-08-18 09:27:00,68.4,60.2,30.11,ESE,123,5.0,7.0,75,0.00,,SKC,0.00,VWS V14.01,2013-08-18 14:27:00,
2013-08-18 09:28:00,68.4,60.5,30.11,SE,138,5.0,7.0,76,0.00,,SKC,0.00,VWS V14.01,2013-08-18 14:28:00,
2013-08-18 09:30:00,68.6,60.4,30.10,ESE,112,3.0,7.0,75,0.00,,---,0.00,VWS V14.01,2013-08-18 14:30:00,
2013-08-18 09:31:00,68.6,60.4,30.10,SE,136,4.0,7.0,75,0.00,,SKC,0.00,VWS V14.01,2013-08-18 14:31:00,
2013-08-18 09:32:00,68.8,60.2,30.10,SE,136,5.0,6.0,74,0.00,,SKC,0.00,VWS V14.01,2013-08-18 14:32:00,
2013-08-18 09:33:00,68.8,60.2,30.10,SE,146,7.0,7.0,74,0.00,,SKC,0.00,VWS V14.01,2013-08-18 14:33:00,
2013-08-18 09:36:00,69.1,60.5,30.10,SE,142,0.0,9.0,74,0.00,,SKC,0.00,VWS V14.01,2013-08-18 14:36:00,
2013-08-18 09:37:00,69.3,60.7,30.10,SE,142,0.0,9.0,74,0.00,,SKC,0.00,VWS V14.01,2013-08-18 14:37:00,
2013-08-18 09:38:00,69.4,60.8,30.10,SE,142,0.0,9.0,74,0.00,,SKC,0.00,VWS V14.01,2013-08-18 14:38:00,
2013-08-18 09:40:00,69.6,61.0,30.10,SE,135,2.0,9.0,74,0.00,,---,0.00,VWS V14.01,2013-08-18 14:40:00,
2013-08-18 09:41:00,69.6,61.0,30.10,SE,143,0.0,0.0,74,0.00,,SKC,0.00,VWS V14.01,2013-08-18 14:41:00,
2013-08-18 09:42:00,69.8,61.2,30.10,SE,143,0.0,0.0,74,0.00,,SKC,0.00,VWS V14.01,2013-08-18 14:42:00,
2013-08-18 09:43:00,69.9,61.2,30.10,SE,143,0.0,0.0,74,0.00,,SKC,0.00,VWS V14.01,2013-08-18 14:43:00,
2013-08-18 09:46:00,70.4,61.7,30.10,SE,143,0.0,2.0,74,0.00,,SKC,0.00,VWS V14.01,2013-08-18 14:46:00,
2013-08-18 09:47:00,70.4,61.3,30.10,SE,130,8.0,10.0,73,0.00,,SKC,0.00,VWS V14.01,2013-08-18 14:47:00,
2013-08-18 09:48:00,70.4,61.0,30.10,SE,129,4.0,10.0,72,0.00,,SKC,0.00,VWS V14.01,2013-08-18 14:48:00,
2013-08-18 09:50:00,70.6,60.8,30.10,SE,135,2.0,10.0,71,0.00,,---,0.00,VWS V14.01,2013-08-18 14:50:00,
2013-08-18 09:51:00,70.6,60.8,30.10,SE,130,0.0,1.0,71,0.00,,SKC,0.00,VWS V14.01,2013-08-18 14:51:00,
2013-08-18 09:52:00,70.8,61.3,30.10,SE,133,3.0,5.0,72,0.00,,SKC,0.00,VWS V14.01,2013-08-18 14:52:00,
2013-08-18 09:53:00,70.9,61.4,30.10,SE,133,0.0,5.0,72,0.00,,SKC,0.00,VWS V14.01,2013-08-18 14:53:00,
2013-08-18 09:56:00,71.3,61.0,30.10,SE,133,0.0,6.0,70,0.00,,SKC,0.00,VWS V14.01,2013-08-18 14:56:00,
2013-08-18 09:57:00,71.3,61.4,30.10,SE,134,6.0,7.0,71,0.00,,SKC,0.00,VWS V14.01,2013-08-18 14:57:00,
2013-08-18 09:58:00,71.3,60.6,30.10,SE,134,4.0,7.0,69,0.00,,SKC,0.00,VWS V14.01,2013-08-18 14:58:00,
2013-08-18 10:00:00,71.5,60.8,30.10,SE,135,3.0,7.0,69,0.00,,---,0.00,VWS V14.01,2013-08-18 15:00:00,
2013-08-18 10:01:00,71.5,60.8,30.10,SE,130,2.0,2.0,69,0.00,,SKC,0.00,VWS V14.01,2013-08-18 15:01:00,
2013-08-18 10:02:00,71.6,61.3,30.10,SE,129,6.0,9.0,70,0.00,,SKC,0.00,VWS V14.01,2013-08-18 15:02:00,
2013-08-18 10:04:00,71.6,60.5,30.10,SE,130,0.0,9.0,68,0.00,,SKC,0.00,VWS V14.01,2013-08-18 15:04:00,
2013-08-18 10:06:00,71.6,60.5,30.10,SE,138,8.0,9.0,68,0.00,,SKC,0.00,VWS V14.01,2013-08-18 15:06:00,
2013-08-18 10:07:00,71.8,60.7,30.10,SE,135,8.0,10.0,68,0.00,,SKC,0.00,VWS V14.01,2013-08-18 15:07:00,
2013-08-18 10:08:00,71.8,59.8,30.10,SE,133,5.0,11.0,66,0.00,,SKC,0.00,VWS V14.01,2013-08-18 15:08:00,
2013-08-18 10:09:00,71.8,59.8,30.10,SE,133,7.0,11.0,66,0.00,,SKC,0.00,VWS V14.01,2013-08-18 15:09:00,
2013-08-18 10:10:00,71.8,59.4,30.10,SE,135,6.0,12.0,65,0.00,,---,0.00,VWS V14.01,2013-08-18 15:10:00,
2013-08-18 10:11:00,71.8,59.4,30.10,SE,138,7.0,10.0,65,0.00,,SKC,0.00,VWS V14.01,2013-08-18 15:11:00,
2013-08-18 10:12:00,71.8,59.4,30.10,SE,137,12.0,12.0,65,0.00,,SKC,0.00,VWS V14.01,2013-08-18 15:12:00,
2013-08-18 10:13:00,71.8,59.8,30.10,SSE,147,10.0,13.0,66,0.00,,SKC,0.00,VWS V14.01,2013-08-18 15:13:00,
2013-08-18 10:14:00,71.8,59.8,30.10,SE,140,9.0,13.0,66,0.00,,SKC,0.00,VWS V14.01,2013-08-18 15:14:00,
2013-08-18 10:16:00,72.0,59.6,30.10,SSE,147,6.0,13.0,65,0.00,,SKC,0.00,VWS V14.01,2013-08-18 15:16:00,
2013-08-18 10:17:00,72.1,59.7,30.10,SSE,153,7.0,13.0,65,0.00,,SKC,0.00,VWS V14.01,2013-08-18 15:17:00,
2013-08-18 10:18:00,72.1,60.1,30.10,SE,145,10.0,13.0,66,0.00,,SKC,0.00,VWS V14.01,2013-08-18 15:18:00,
2013-08-18 10:19:00,72.3,59.5,30.10,SE,140,7.0,13.0,64,0.00,,SKC,0.00,VWS V14.01,2013-08-18 15:19:00,
2013-08-18 10:20:00,72.5,59.2,30.10,SE,135,8.0,13.0,63,0.00,,---,0.00,VWS V14.01,2013-08-18 15:20:00,
2013-08-18 10:21:00,72.5,59.6,30.10,ESE,123,5.0,9.0,64,0.00,,SKC,0.00,VWS V14.01,2013-08-18 15:21:00,
2013-08-18 10:22:00,72.7,60.7,30.10,SE,129,7.0,9.0,66,0.00,,SKC,0.00,VWS V14.01,2013-08-18 15:22:00,
2013-08-18 10:23:00,72.8,60.8,30.10,ESE,123,12.0,13.0,66,0.00,,SKC,0.00,VWS V14.01,2013-08-18 15:23:00,
2013-08-18 10:24:00,72.8,59.9,30.10,ESE,118,9.0,13.0,64,0.00,,SKC,0.00,VWS V14.01,2013-08-18 15:24:00,
2013-08-18 10:26:00,72.8,59.5,30.10,SE,124,10.0,13.0,63,0.00,,SKC,0.00,VWS V14.01,2013-08-18 15:26:00,
2013-08-18 10:28:00,72.7,58.9,30.10,ESE,121,9.0,13.0,62,0.00,,SKC,0.00,VWS V14.01,2013-08-18 15:28:00,
2013-08-18 10:29:00,72.7,58.9,30.10,SE,130,11.0,13.0,62,0.00,,SKC,0.00,VWS V14.01,2013-08-18 15:29:00,
2013-08-18 10:30:00,72.7,59.8,30.10,SE,135,9.0,13.0,64,0.00,,---,0.00,VWS V14.01,2013-08-18 15:30:00,
2013-08-18 10:32:00,72.8,59.5,30.10,SE,140,6.0,11.0,63,0.00,,SKC,0.00,VWS V14.01,2013-08-18 15:32:00,
2013-08-18 10:33:00,72.8,59.9,30.10,SE,142,12.0,12.0,64,0.00,,SKC,0.00,VWS V14.01,2013-08-18 15:33:00,
2013-08-18 10:34:00,73.0,59.7,30.10,SE,132,10.0,15.0,63,0.00,,SKC,0.00,VWS V14.01,2013-08-18 15:34:00,
2013-08-18 10:37:00,73.2,60.3,30.10,SSE,158,2.0,15.0,64,0.00,,SKC,0.00,VWS V14.01,2013-08-18 15:37:00,
2013-08-18 10:38:00,73.2,59.4,30.10,SSE,153,12.0,15.0,62,0.00,,SKC,0.00,VWS V14.01,2013-08-18 15:38:00,
2013-08-18 10:39:00,73.2,59.0,30.10,SSE,158,3.0,15.0,61,0.00,,SKC,0.00,VWS V14.01,2013-08-18 15:39:00,
2013-08-18 10:40:00,73.3,59.0,30.10,SSE,158,7.0,15.0,61,0.00,,---,0.00,VWS V14.01,2013-08-18 15:40:00,
2013-08-18 10:42:00,73.2,59.0,30.10,SSE,152,6.0,10.0,61,0.00,,SKC,0.00,VWS V14.01,2013-08-18 15:42:00,
2013-08-18 10:43:00,73.2,59.4,30.10,SSE,152,7.0,10.0,62,0.00,,SKC,0.00,VWS V14.01,2013-08-18 15:43:00,
2013-08-18 10:44:00,73.5,60.2,30.10,SSE,150,2.0,11.0,63,0.00,,SKC,0.00,VWS V14.01,2013-08-18 15:44:00,
2013-08-18 10:47:00,73.7,59.4,30.10,SE,140,12.0,14.0,61,0.00,,SKC,0.00,VWS V14.01,2013-08-18 15:47:00,
2013-08-18 10:48:00,73.7,58.5,30.10,SE,131,11.0,14.0,59,0.00,,SKC,0.00,VWS V14.01,2013-08-18 15:48:00,
2013-08-18 10:49:00,73.5,58.3,30.10,SE,135,9.0,14.0,59,0.00,,SKC,0.00,VWS V14.01,2013-08-18 15:49:00,
2013-08-18 10:50:00,73.5,58.3,30.10,SE,135,9.0,14.0,59,0.00,,---,0.00,VWS V14.01,2013-08-18 15:50:00,
2013-08-18 10:52:00,73.5,58.3,30.10,SE,129,10.0,13.0,59,0.00,,SKC,0.00,VWS V14.01,2013-08-18 15:52:00,
2013-08-18 10:53:00,73.5,59.2,30.10,SE,133,12.0,14.0,61,0.00,,SKC,0.00,VWS V14.01,2013-08-18 15:53:00,
2013-08-18 10:54:00,73.5,58.8,30.10,SE,144,6.0,14.0,60,0.00,,SKC,0.00,VWS V14.01,2013-08-18 15:54:00,
2013-08-18 10:57:00,73.5,58.8,30.10,SSE,153,13.0,16.0,60,0.00,,SKC,0.00,VWS V14.01,2013-08-18 15:57:00,
2013-08-18 10:58:00,73.5,58.8,30.10,SSE,158,5.0,16.0,60,0.00,,SKC,0.00,VWS V14.01,2013-08-18 15:58:00,
2013-08-18 10:59:00,73.5,58.8,30.10,SSE,152,13.0,16.0,60,0.00,,SKC,0.00,VWS V14.01,2013-08-18 15:59:00,
2013-08-18 11:00:00,73.5,59.2,30.10,SE,135,10.0,16.0,61,0.00,,---,0.00,VWS V14.01,2013-08-18 16:00:00,
2013-08-18 11:02:00,73.5,59.2,30.10,SE,132,5.0,6.0,61,0.00,,SKC,0.00,VWS V14.01,2013-08-18 16:02:00,
2013-08-18 11:03:00,73.7,59.9,30.10,SE,133,7.0,7.0,62,0.00,,SKC,0.00,VWS V14.01,2013-08-18 16:03:00,
2013-08-18 11:04:00,73.9,60.1,30.10,SSE,152,10.0,14.0,62,0.00,,SKC,0.00,VWS V14.01,2013-08-18 16:04:00,
2013-08-18 11:07:00,74.0,60.2,30.10,SSE,153,0.0,14.0,62,0.00,,SKC,0.00,VWS V14.01,2013-08-18 16:07:00,
2013-08-18 11:08:00,74.2,60.4,30.10,SSE,153,0.0,14.0,62,0.00,,SKC,0.00,VWS V14.01,2013-08-18 16:08:00,
2013-08-18 11:09:00,74.4,60.5,30.10,SSE,153,7.0,14.0,62,0.00,,SKC,0.00,VWS V14.01,2013-08-18 16:09:00,
2013-08-18 11:10:00,74.2,59.0,30.10,SSE,158,6.0,15.0,59,0.00,,---,0.00,VWS V14.01,2013-08-18 16:10:00,
2013-08-18 11:12:00,74.0,58.8,30.10,SE,133,9.0,12.0,59,0.00,,SKC,0.00,VWS V14.01,2013-08-18 16:12:00,
2013-08-18 11:13:00,74.0,59.2,30.10,SE,133,8.0,12.0,60,0.00,,SKC,0.00,VWS V14.01,2013-08-18 16:13:00,
2013-08-18 11:14:00,74.2,59.9,30.10,SE,132,5.0,12.0,61,0.00,,SKC,0.00,VWS V14.01,2013-08-18 16:14:00,
2013-08-18 11:17:00,74.6,60.7,30.10,ESE,119,7.0,12.0,62,0.00,,SKC,0.00,VWS V14.01,2013-08-18 16:17:00,
2013-08-18 11:18:00,74.6,59.3,30.10,SE,126,13.0,15.0,59,0.00,,SKC,0.00,VWS V14.01,2013-08-18 16:18:00,
2013-08-18 11:19:00,74.4,59.2,30.10,SE,130,8.0,15.0,59,0.00,,SKC,0.00,VWS V14.01,2013-08-18 16:19:00,
2013-08-18 11:20:00,74.4,59.2,30.10,SE,130,10.0,15.0,59,0.00,,SKC,0.00,VWS V14.01,2013-08-18 16:20:00,
2013-08-18 11:22:00,74.4,59.6,30.10,SSE,153,6.0,11.0,60,0.00,,SKC,0.00,VWS V14.01,2013-08-18 16:22:00,
2013-08-18 11:23:00,74.4,59.2,30.10,SSE,153,4.0,14.0,59,0.00,,SKC,0.00,VWS V14.01,2013-08-18 16:23:00,
2013-08-18 11:24:00,74.6,60.3,30.10,SSE,151,3.0,14.0,61,0.00,,SKC,0.00,VWS V14.01,2013-08-18 16:24:00,
2013-08-18 11:25:00,74.7,60.4,30.10,SSE,153,4.0,14.0,61,0.00,,SKC,0.00,VWS V14.01,2013-08-18 16:25:00,
2013-08-18 11:27:00,74.7,59.4,30.10,SE,140,6.0,14.0,59,0.00,,SKC,0.00,VWS V14.01,2013-08-18 16:27:00,
2013-08-18 11:28:00,74.9,59.6,30.10,SE,140,1.0,14.0,59,0.00,,SKC,0.00,VWS V14.01,2013-08-18 16:28:00,
2013-08-18 11:29:00,74.9,60.1,30.10,SSE,153,4.0,14.0,60,0.00,,SKC,0.00,VWS V14.01,2013-08-18 16:29:00,
2013-08-18 11:30:00,75.1,60.3,30.10,SSE,152,7.0,14.0,60,0.00,,SKC,0.00,VWS V14.01,2013-08-18 16:30:00,
2013-08-18 11:32:00,75.1,59.3,30.09,SE,137,4.0,13.0,58,0.00,,SKC,0.00,VWS V14.01,2013-08-18 16:32:00,
2013-08-18 11:33:00,75.1,59.3,30.09,SE,137,1.0,13.0,58,0.00,,SKC,0.00,VWS V14.01,2013-08-18 16:33:00,
2013-08-18 11:34:00,75.1,60.3,30.09,SSE,154,5.0,13.0,60,0.00,,SKC,0.00,VWS V14.01,2013-08-18 16:34:00,
2013-08-18 11:35:00,75.1,59.8,30.09,SE,142,11.0,13.0,59,0.00,,SKC,0.00,VWS V14.01,2013-08-18 16:35:00,
2013-08-18 11:37:00,75.3,60.5,30.09,SSE,150,3.0,15.0,60,0.00,,SKC,0.00,VWS V14.01,2013-08-18 16:37:00,
2013-08-18 11:38:00,75.3,60.5,30.09,SSE,150,1.0,15.0,60,0.00,,SKC,0.00,VWS V14.01,2013-08-18 16:38:00,
2013-08-18 11:39:00,75.4,60.6,30.09,SSE,152,6.0,15.0,60,0.00,,SKC,0.00,VWS V14.01,2013-08-18 16:39:00,
2013-08-18 11:40:00,75.3,59.5,30.09,SE,135,11.0,15.0,58,0.00,,SKC,0.00,VWS V14.01,2013-08-18 16:40:00,
2013-08-18 11:42:00,74.9,59.1,30.09,SE,145,4.0,15.0,58,0.00,,SKC,0.00,VWS V14.01,2013-08-18 16:42:00,
2013-08-18 11:43:00,75.1,59.3,30.09,SE,136,9.0,15.0,58,0.00,,SKC,0.00,VWS V14.01,2013-08-18 16:43:00,
2013-08-18 11:44:00,75.3,60.5,30.09,SSE,155,11.0,15.0,60,0.00,,SKC,0.00,VWS V14.01,2013-08-18 16:44:00,
2013-08-18 11:45:00,75.1,58.8,30.09,SSE,147,12.0,15.0,57,0.00,,SKC,0.00,VWS V14.01,2013-08-18 16:45:00,
2013-08-18 11:47:00,75.1,59.8,30.09,SSE,158,5.0,15.0,59,0.00,,SKC,0.00,VWS V14.01,2013-08-18 16:47:00,
2013-08-18 11:48:00,75.1,59.8,30.09,SSE,158,3.0,15.0,59,0.00,,SKC,0.00,VWS V14.01,2013-08-18 16:48:00,
2013-08-18 11:49:00,75.1,59.8,30.09,SSE,154,3.0,15.0,59,0.00,,SKC,0.00,VWS V14.01,2013-08-18 16:49:00,
2013-08-18 11:50:00,75.1,59.8,30.09,SSE,154,4.0,15.0,59,0.00,,SKC,0.00,VWS V14.01,2013-08-18 16:50:00,
2013-08-18 11:52:00,75.1,59.3,30.09,SE,132,4.0,13.0,58,0.00,,SKC,0.00,VWS V14.01,2013-08-18 16:52:00,
2013-08-18 11:53:00,75.3,59.5,30.09,ESE,118,13.0,13.0,58,0.00,,SKC,0.00,VWS V14.01,2013-08-18 16:53:00,
2013-08-18 11:55:00,75.3,60.0,30.09,SSE,150,1.0,13.0,59,0.00,,SKC,0.00,VWS V14.01,2013-08-18 16:55:00,
2013-08-18 11:58:00,75.4,59.6,30.09,ESE,121,8.0,16.0,58,0.00,,SKC,0.00,VWS V14.01,2013-08-18 16:58:00,
2013-08-18 12:00:00,75.8,60.5,30.09,SSE,150,6.0,16.0,59,0.00,,SKC,0.00,VWS V14.01,2013-08-18 17:00:00,
2013-08-18 12:03:00,75.8,59.5,30.08,SE,146,9.0,12.0,57,0.00,,SKC,0.00,VWS V14.01,2013-08-18 17:03:00,
2013-08-18 12:05:00,75.6,59.3,30.08,SSE,154,1.0,12.0,57,0.00,,SKC,0.00,VWS V14.01,2013-08-18 17:05:00,
2013-08-18 12:08:00,75.4,59.1,30.08,SSE,153,4.0,12.0,57,0.00,,SKC,0.00,VWS V14.01,2013-08-18 17:08:00,
2013-08-18 12:10:00,75.6,59.3,30.08,SE,132,9.0,12.0,57,0.00,,SKC,0.00,VWS V14.01,2013-08-18 17:10:00,
2013-08-18 12:13:00,76.0,60.7,30.08,SE,132,9.0,12.0,59,0.00,,SKC,0.00,VWS V14.01,2013-08-18 17:13:00,
2013-08-18 12:15:00,76.1,59.8,30.08,SE,136,8.0,12.0,57,0.00,,SKC,0.00,VWS V14.01,2013-08-18 17:15:00,
2013-08-18 12:18:00,76.1,59.8,30.09,SSE,156,5.0,12.0,57,0.00,,SKC,0.00,VWS V14.01,2013-08-18 17:18:00,
2013-08-18 12:20:00,76.1,60.3,30.09,SSE,157,5.0,12.0,58,0.00,,SKC,0.00,VWS V14.01,2013-08-18 17:20:00,
2013-08-18 12:23:00,76.0,59.7,30.09,SE,146,3.0,14.0,57,0.00,,SKC,0.00,VWS V14.01,2013-08-18 17:23:00,
2013-08-18 12:25:00,76.1,60.3,30.09,SSE,154,2.0,14.0,58,0.00,,SKC,0.00,VWS V14.01,2013-08-18 17:25:00,
2013-08-18 12:28:00,76.3,60.0,30.09,SSE,155,0.0,14.0,57,0.00,,SKC,0.00,VWS V14.01,2013-08-18 17:28:00,
2013-08-18 12:30:00,76.3,59.5,30.09,SSE,154,6.0,15.0,56,0.00,,SKC,0.00,VWS V14.01,2013-08-18 17:30:00,
2013-08-18 12:33:00,76.3,60.0,30.08,SE,133,5.0,13.0,57,0.00,,SKC,0.00,VWS V14.01,2013-08-18 17:33:00,
2013-08-18 12:35:00,76.1,58.8,30.08,SE,142,1.0,14.0,55,0.00,,SKC,0.00,VWS V14.01,2013-08-18 17:35:00,
2013-08-18 12:38:00,76.3,60.0,30.08,SSE,148,9.0,17.0,57,0.00,,SKC,0.00,VWS V14.01,2013-08-18 17:38:00,
2013-08-18 12:39:00,76.3,60.0,30.08,SSE,148,6.0,17.0,57,0.00,,SKC,0.00,VWS V14.01,2013-08-18 17:39:00,
2013-08-18 12:40:00,76.3,60.0,30.08,SE,139,9.0,17.0,57,0.00,,SKC,0.00,VWS V14.01,2013-08-18 17:40:00,
2013-08-18 12:43:00,76.5,60.6,30.08,SSE,153,4.0,9.0,58,0.00,,SKC,0.00,VWS V14.01,2013-08-18 17:43:00,
2013-08-18 12:44:00,76.5,60.6,30.08,SSE,153,2.0,9.0,58,0.00,,SKC,0.00,VWS V14.01,2013-08-18 17:44:00,
2013-08-18 12:45:00,76.8,59.9,30.08,ESE,119,7.0,11.0,56,0.00,,SKC,0.00,VWS V14.01,2013-08-18 17:45:00,
2013-08-18 12:46:00,76.8,59.9,30.07,SE,128,13.0,14.0,56,0.00,,SKC,0.00,VWS V14.01,2013-08-18 17:46:00,
2013-08-18 12:48:00,76.7,59.8,30.07,SSE,150,4.0,15.0,56,0.00,,SKC,0.00,VWS V14.01,2013-08-18 17:48:00,
2013-08-18 12:49:00,76.7,59.8,30.07,SE,138,5.0,15.0,56,0.00,,SKC,0.00,VWS V14.01,2013-08-18 17:49:00,
2013-08-18 12:50:00,76.8,59.9,30.07,SSE,150,6.0,15.0,56,0.00,,SKC,0.00,VWS V14.01,2013-08-18 17:50:00,
2013-08-18 12:51:00,76.7,59.8,30.07,SSE,150,4.0,15.0,56,0.00,,SKC,0.00,VWS V14.01,2013-08-18 17:51:00,
2013-08-18 12:53:00,77.0,60.1,30.07,SE,140,9.0,11.0,56,0.00,,SKC,0.00,VWS V14.01,2013-08-18 17:53:00,
2013-08-18 12:54:00,77.0,60.1,30.07,SE,128,12.0,12.0,56,0.00,,SKC,0.00,VWS V14.01,2013-08-18 17:54:00,
2013-08-18 12:55:00,77.0,60.1,30.07,SSE,147,11.0,14.0,56,0.00,,SKC,0.00,VWS V14.01,2013-08-18 17:55:00,
2013-08-18 12:56:00,77.0,60.1,30.07,SSE,154,4.0,14.0,56,0.00,,SKC,0.00,VWS V14.01,2013-08-18 17:56:00,
2013-08-18 12:58:00,77.0,60.6,30.07,SE,144,9.0,14.0,57,0.00,,SKC,0.00,VWS V14.01,2013-08-18 17:58:00,
2013-08-18 12:59:00,77.0,60.6,30.07,SSE,155,4.0,14.0,57,0.00,,SKC,0.00,VWS V14.01,2013-08-18 17:59:00,
2013-08-18 13:00:00,77.0,60.1,30.07,SSE,157,7.0,14.0,56,0.00,,SKC,0.00,VWS V14.01,2013-08-18 18:00:00,
2013-08-18 13:01:00,77.0,60.1,30.07,SSE,157,5.0,14.0,56,0.00,,SKC,0.00,VWS V14.01,2013-08-18 18:01:00,
2013-08-18 13:03:00,77.2,61.3,30.07,ESE,119,10.0,12.0,58,0.00,,SKC,0.00,VWS V14.01,2013-08-18 18:03:00,
2013-08-18 13:04:00,77.2,61.3,30.07,ESE,111,10.0,12.0,58,0.00,,SKC,0.00,VWS V14.01,2013-08-18 18:04:00,
2013-08-18 13:05:00,77.2,59.3,30.07,ESE,120,8.0,14.0,54,0.00,,SKC,0.00,VWS V14.01,2013-08-18 18:05:00,
2013-08-18 13:06:00,77.2,59.3,30.07,ESE,121,11.0,14.0,54,0.00,,SKC,0.00,VWS V14.01,2013-08-18 18:06:00,
2013-08-18 13:08:00,77.4,60.5,30.07,SE,132,9.0,14.0,56,0.00,,SKC,0.00,VWS V14.01,2013-08-18 18:08:00,
2013-08-18 13:09:00,77.4,60.0,30.07,SE,137,2.0,14.0,55,0.00,,SKC,0.00,VWS V14.01,2013-08-18 18:09:00,
2013-08-18 13:10:00,77.6,61.2,30.07,ESE,112,6.0,14.0,57,0.00,,---,0.00,VWS V14.01,2013-08-18 18:10:00,
2013-08-18 13:11:00,77.6,61.2,30.07,SE,138,4.0,14.0,57,0.00,,SKC,0.00,VWS V14.01,2013-08-18 18:11:00,
2013-08-18 13:13:00,77.9,60.5,30.07,SSE,150,10.0,11.0,55,0.00,,SKC,0.00,VWS V14.01,2013-08-18 18:13:00,
2013-08-18 13:14:00,77.7,60.3,30.07,SE,128,10.0,11.0,55,0.00,,SKC,0.00,VWS V14.01,2013-08-18 18:14:00,
2013-08-18 13:16:00,77.7,60.8,30.06,SE,126,10.0,13.0,56,0.00,,SKC,0.00,VWS V14.01,2013-08-18 18:16:00,
2013-08-18 13:18:00,77.7,61.3,30.06,SSE,147,14.0,15.0,57,0.00,,SKC,0.00,VWS V14.01,2013-08-18 18:18:00,
2013-08-18 13:19:00,77.6,60.2,30.06,SSE,149,9.0,15.0,55,0.00,,SKC,0.00,VWS V14.01,2013-08-18 18:19:00,
2013-08-18 13:20:00,77.4,60.0,30.06,SSE,158,8.0,15.0,55,0.00,,---,0.00,VWS V14.01,2013-08-18 18:20:00,
2013-08-18 13:21:00,77.4,60.0,30.06,SSE,154,0.0,15.0,55,0.00,,SKC,0.00,VWS V14.01,2013-08-18 18:21:00,
2013-08-18 13:24:00,77.7,60.8,30.06,SE,137,7.0,11.0,56,0.00,,SKC,0.00,VWS V14.01,2013-08-18 18:24:00,
2013-08-18 13:26:00,77.9,61.0,30.06,SE,132,10.0,11.0,56,0.00,,SKC,0.00,VWS V14.01,2013-08-18 18:26:00,
2013-08-18 13:29:00,77.9,59.9,30.06,SE,128,5.0,14.0,54,0.00,,SKC,0.00,VWS V14.01,2013-08-18 18:29:00,
2013-08-18 13:30:00,77.9,60.5,30.05,SE,135,7.0,14.0,55,0.00,,---,0.00,VWS V14.01,2013-08-18 18:30:00,
2013-08-18 13:31:00,77.9,60.5,30.05,SE,145,11.0,14.0,55,0.00,,SKC,0.00,VWS V14.01,2013-08-18 18:31:00,
2013-08-18 13:34:00,77.9,59.9,30.05,SSE,154,5.0,14.0,54,0.00,,SKC,0.00,VWS V14.01,2013-08-18 18:34:00,
2013-08-18 13:36:00,78.1,60.6,30.05,SSE,157,3.0,14.0,55,0.00,,SKC,0.00,VWS V14.01,2013-08-18 18:36:00,
2013-08-18 13:39:00,78.1,61.1,30.05,SE,144,0.0,14.0,56,0.00,,SKC,0.00,VWS V14.01,2013-08-18 18:39:00,
2013-08-18 13:40:00,78.1,60.1,30.05,SSE,158,4.0,14.0,54,0.00,,---,0.00,VWS V14.01,2013-08-18 18:40:00,
2013-08-18 13:41:00,78.1,60.1,30.05,SSE,161,3.0,14.0,54,0.00,,SKC,0.00,VWS V14.01,2013-08-18 18:41:00,
2013-08-18 13:44:00,78.3,60.3,30.05,SSE,150,7.0,11.0,54,0.00,,SKC,0.00,VWS V14.01,2013-08-18 18:44:00,
2013-08-18 13:45:00,78.3,60.8,30.05,SSE,152,2.0,11.0,55,0.00,,SKC,0.00,VWS V14.01,2013-08-18 18:45:00,
2013-08-18 13:46:00,78.5,61.0,30.05,SSE,161,5.0,11.0,55,0.00,,SKC,0.00,VWS V14.01,2013-08-18 18:46:00,
2013-08-18 13:49:00,78.5,61.0,30.05,SSE,149,7.0,15.0,55,0.00,,SKC,0.00,VWS V14.01,2013-08-18 18:49:00,
2013-08-18 13:50:00,78.5,61.5,30.05,SE,131,10.0,15.0,56,0.00,,SKC,0.00,VWS V14.01,2013-08-18 18:50:00,
2013-08-18 13:51:00,78.5,60.0,30.05,SSE,148,6.0,15.0,53,0.00,,SKC,0.00,VWS V14.01,2013-08-18 18:51:00,
2013-08-18 13:52:00,78.3,59.8,30.05,SSE,148,2.0,7.0,53,0.00,,SKC,0.00,VWS V14.01,2013-08-18 18:52:00,
2013-08-18 13:54:00,78.3,60.3,30.05,SE,144,9.0,11.0,54,0.00,,SKC,0.00,VWS V14.01,2013-08-18 18:54:00,
2013-08-18 13:55:00,78.3,60.3,30.05,SE,146,5.0,11.0,54,0.00,,SKC,0.00,VWS V14.01,2013-08-18 18:55:00,
2013-08-18 13:56:00,78.3,60.3,30.05,SSE,159,9.0,15.0,54,0.00,,SKC,0.00,VWS V14.01,2013-08-18 18:56:00,
2013-08-18 13:57:00,78.3,60.3,30.05,SE,142,12.0,15.0,54,0.00,,SKC,0.00,VWS V14.01,2013-08-18 18:57:00,
2013-08-18 13:59:00,78.5,60.0,30.05,SSE,164,4.0,16.0,53,0.00,,SKC,0.00,VWS V14.01,2013-08-18 18:59:00,
2013-08-18 14:00:00,78.6,60.1,30.05,SSE,148,5.0,16.0,53,0.00,,SKC,0.00,VWS V14.01,2013-08-18 19:00:00,
2013-08-18 14:01:00,78.6,61.1,30.05,SSE,165,5.0,16.0,55,0.00,,SKC,0.00,VWS V14.01,2013-08-18 19:01:00,
2013-08-18 14:02:00,78.6,60.6,30.05,SE,133,6.0,6.0,54,0.00,,SKC,0.00,VWS V14.01,2013-08-18 19:02:00,
2013-08-18 14:04:00,78.5,60.0,30.05,ESE,120,5.0,10.0,53,0.00,,SKC,0.00,VWS V14.01,2013-08-18 19:04:00,
2013-08-18 14:05:00,78.5,60.0,30.05,ESE,113,6.0,10.0,53,0.00,,SKC,0.00,VWS V14.01,2013-08-18 19:05:00,
2013-08-18 14:06:00,78.5,60.5,30.05,SE,129,9.0,13.0,54,0.00,,SKC,0.00,VWS V14.01,2013-08-18 19:06:00,
2013-08-18 14:07:00,78.5,60.0,30.05,SE,128,9.0,13.0,53,0.00,,SKC,0.00,VWS V14.01,2013-08-18 19:07:00,
2013-08-18 14:09:00,78.5,60.5,30.05,ESE,123,9.0,13.0,54,0.00,,SKC,0.00,VWS V14.01,2013-08-18 19:09:00,
2013-08-18 14:10:00,78.5,60.5,30.05,SSE,152,3.0,14.0,54,0.00,,SKC,0.00,VWS V14.01,2013-08-18 19:10:00,
2013-08-18 14:11:00,78.6,60.6,30.05,SE,140,7.0,7.0,54,0.00,,SKC,0.00,VWS V14.01,2013-08-18 19:11:00,
2013-08-18 14:12:00,78.6,60.6,30.05,SE,139,6.0,8.0,54,0.00,,SKC,0.00,VWS V14.01,2013-08-18 19:12:00,
2013-08-18 14:14:00,78.8,61.3,30.05,SSE,147,0.0,10.0,55,0.00,,SKC,0.00,VWS V14.01,2013-08-18 19:14:00,
2013-08-18 14:15:00,78.8,61.3,30.05,SE,124,13.0,14.0,55,0.00,,SKC,0.00,VWS V14.01,2013-08-18 19:15:00,
2013-08-18 14:16:00,78.8,59.7,30.04,ESE,122,8.0,14.0,52,0.00,,SKC,0.00,VWS V14.01,2013-08-18 19:16:00,
2013-08-18 14:17:00,78.8,59.7,30.04,ESE,121,5.0,14.0,52,0.00,,SKC,0.00,VWS V14.01,2013-08-18 19:17:00,
2013-08-18 14:19:00,78.6,59.5,30.04,SSE,152,10.0,14.0,52,0.00,,SKC,0.00,VWS V14.01,2013-08-18 19:19:00,
2013-08-18 14:20:00,78.8,59.7,30.04,SSE,147,11.0,14.0,52,0.00,,SKC,0.00,VWS V14.01,2013-08-18 19:20:00,
2013-08-18 14:21:00,78.8,60.8,30.04,SE,144,5.0,9.0,54,0.00,,SKC,0.00,VWS V14.01,2013-08-18 19:21:00,
2013-08-18 14:22:00,79.0,61.0,30.04,SE,146,3.0,9.0,54,0.00,,SKC,0.00,VWS V14.01,2013-08-18 19:22:00,
2013-08-18 14:25:00,79.2,61.7,30.04,SSE,156,3.0,13.0,55,0.00,,SKC,0.00,VWS V14.01,2013-08-18 19:25:00,
2013-08-18 14:26:00,79.2,61.1,30.04,South,190,4.0,13.0,54,0.00,,SKC,0.00,VWS V14.01,2013-08-18 19:26:00,
2013-08-18 14:27:00,79.2,61.1,30.04,South,190,3.0,13.0,54,0.00,,SKC,0.00,VWS V14.01,2013-08-18 19:27:00,
2013-08-18 14:30:00,78.8,59.7,30.04,SE,127,12.0,16.0,52,0.00,,SKC,0.00,VWS V14.01,2013-08-18 19:30:00,
2013-08-18 14:31:00,78.8,60.8,30.04,SSE,148,8.0,9.0,54,0.00,,SKC,0.00,VWS V14.01,2013-08-18 19:31:00,
2013-08-18 14:32:00,78.8,60.8,30.04,SSE,154,9.0,10.0,54,0.00,,SKC,0.00,VWS V14.01,2013-08-18 19:32:00,
2013-08-18 14:35:00,79.2,61.1,30.04,SE,137,9.0,12.0,54,0.00,,SKC,0.00,VWS V14.01,2013-08-18 19:35:00,
2013-08-18 14:37:00,79.2,61.1,30.04,SSE,152,9.0,12.0,54,0.00,,SKC,0.00,VWS V14.01,2013-08-18 19:37:00,
2013-08-18 14:40:00,79.2,60.1,30.04,SE,142,10.0,15.0,52,0.00,,SKC,0.00,VWS V14.01,2013-08-18 19:40:00,
2013-08-18 14:42:00,79.2,61.1,30.04,SE,136,13.0,15.0,54,0.00,,SKC,0.00,VWS V14.01,2013-08-18 19:42:00,
2013-08-18 14:45:00,79.2,61.1,30.04,SSE,163,6.0,15.0,54,0.00,,SKC,0.00,VWS V14.01,2013-08-18 19:45:00,
2013-08-18 14:46:00,79.4,60.8,30.03,ESE,121,11.0,15.0,53,0.00,,SKC,0.00,VWS V14.01,2013-08-18 19:46:00,
2013-08-18 14:47:00,79.4,60.8,30.03,SE,132,10.0,15.0,53,0.00,,SKC,0.00,VWS V14.01,2013-08-18 19:47:00,
2013-08-18 14:50:00,79.6,61.5,30.03,SE,146,6.0,15.0,54,0.00,,SKC,0.00,VWS V14.01,2013-08-18 19:50:00,
2013-08-18 14:51:00,79.6,60.4,30.03,SE,130,14.0,16.0,52,0.00,,SKC,0.00,VWS V14.01,2013-08-18 19:51:00,
2013-08-18 14:52:00,79.4,60.3,30.03,SE,134,14.0,16.0,52,0.00,,SKC,0.00,VWS V14.01,2013-08-18 19:52:00,
2013-08-18 14:55:00,79.6,60.4,30.03,SSE,155,1.0,17.0,52,0.00,,SKC,0.00,VWS V14.01,2013-08-18 19:55:00,
2013-08-18 14:56:00,79.4,59.7,30.03,SSE,157,4.0,17.0,51,0.00,,SKC,0.00,VWS V14.01,2013-08-18 19:56:00,
2013-08-18 14:57:00,79.2,59.5,30.03,SSE,157,0.0,17.0,51,0.00,,SKC,0.00,VWS V14.01,2013-08-18 19:57:00,
2013-08-18 15:00:00,79.2,59.5,30.03,ESE,115,6.0,17.0,51,0.00,,SKC,0.00,VWS V14.01,2013-08-18 20:00:00,
2013-08-18 15:02:00,79.0,59.3,30.04,SE,125,2.0,2.0,51,0.00,,SKC,0.00,VWS V14.01,2013-08-18 20:02:00,
2013-08-18 15:05:00,79.0,60.4,30.04,South,189,2.0,14.0,53,0.00,,SKC,0.00,VWS V14.01,2013-08-18 20:05:00,
2013-08-18 15:07:00,79.0,60.4,30.04,SSE,162,3.0,14.0,53,0.00,,SKC,0.00,VWS V14.01,2013-08-18 20:07:00,
2013-08-18 15:10:00,79.0,60.4,30.04,SE,124,11.0,14.0,53,0.00,,SKC,0.00,VWS V14.01,2013-08-18 20:10:00,
2013-08-18 15:12:00,79.2,60.1,30.04,SE,135,10.0,14.0,52,0.00,,SKC,0.00,VWS V14.01,2013-08-18 20:12:00,
2013-08-18 15:15:00,79.4,59.7,30.03,SSE,153,4.0,16.0,51,0.00,,SKC,0.00,VWS V14.01,2013-08-18 20:15:00,
2013-08-18 15:16:00,79.6,59.9,30.03,SE,131,13.0,16.0,51,0.00,,SKC,0.00,VWS V14.01,2013-08-18 20:16:00,
2013-08-18 15:17:00,79.4,58.6,30.03,SE,142,6.0,16.0,49,0.00,,SKC,0.00,VWS V14.01,2013-08-18 20:17:00,
2013-08-18 15:20:00,79.6,59.3,30.03,SSE,150,5.0,17.0,50,0.00,,SKC,0.00,VWS V14.01,2013-08-18 20:20:00,
2013-08-18 15:21:00,79.6,59.3,30.03,SSE,154,6.0,17.0,50,0.00,,SKC,0.00,VWS V14.01,2013-08-18 20:21:00,
2013-08-18 15:22:00,79.6,61.0,30.03,SSE,151,7.0,10.0,53,0.00,,SKC,0.00,VWS V14.01,2013-08-18 20:22:00,
2013-08-18 15:25:00,79.6,60.4,30.03,SE,128,8.0,15.0,52,0.00,,SKC,0.00,VWS V14.01,2013-08-18 20:25:00,
2013-08-18 15:26:00,79.6,60.4,30.03,SE,140,3.0,15.0,52,0.00,,SKC,0.00,VWS V14.01,2013-08-18 20:26:00,
2013-08-18 15:27:00,79.6,60.4,30.03,SE,143,0.0,15.0,52,0.00,,SKC,0.00,VWS V14.01,2013-08-18 20:27:00,
2013-08-18 15:28:00,79.6,60.4,30.03,SE,140,10.0,15.0,52,0.00,,SKC,0.00,VWS V14.01,2013-08-18 20:28:00,
2013-08-18 15:30:00,79.8,61.7,30.02,SSE,154,9.0,15.0,54,0.00,,SKC,0.00,VWS V14.01,2013-08-18 20:30:00,
2013-08-18 15:31:00,79.8,60.6,30.02,SE,142,11.0,11.0,52,0.00,,SKC,0.00,VWS V14.01,2013-08-18 20:31:00,
2013-08-18 15:32:00,79.9,60.7,30.02,SE,130,11.0,14.0,52,0.00,,SKC,0.00,VWS V14.01,2013-08-18 20:32:00,
2013-08-18 15:33:00,79.9,60.7,30.02,SE,139,10.0,14.0,52,0.00,,SKC,0.00,VWS V14.01,2013-08-18 20:33:00,
2013-08-18 15:35:00,80.1,60.9,30.02,SSE,152,3.0,14.0,52,0.00,,SKC,0.00,VWS V14.01,2013-08-18 20:35:00,
2013-08-18 15:36:00,80.1,61.4,30.02,South,178,4.0,14.0,53,0.00,,SKC,0.00,VWS V14.01,2013-08-18 20:36:00,
2013-08-18 15:37:00,80.1,61.4,30.02,South,178,3.0,14.0,53,0.00,,SKC,0.00,VWS V14.01,2013-08-18 20:37:00,
2013-08-18 15:38:00,80.1,61.4,30.02,SSE,155,6.0,14.0,53,0.00,,SKC,0.00,VWS V14.01,2013-08-18 20:38:00,
2013-08-18 15:40:00,79.9,61.3,30.02,SSE,163,2.0,14.0,53,0.00,,SKC,0.00,VWS V14.01,2013-08-18 20:40:00,
2013-08-18 15:41:00,79.9,61.3,30.02,SSE,164,1.0,1.0,53,0.00,,SKC,0.00,VWS V14.01,2013-08-18 20:41:00,
2013-08-18 15:42:00,79.9,61.3,30.02,SSE,154,9.0,11.0,53,0.00,,SKC,0.00,VWS V14.01,2013-08-18 20:42:00,
2013-08-18 15:43:00,79.9,61.3,30.02,SSE,159,11.0,13.0,53,0.00,,SKC,0.00,VWS V14.01,2013-08-18 20:43:00,
2013-08-18 15:45:00,79.9,60.7,30.02,SSE,152,5.0,14.0,52,0.00,,SKC,0.00,VWS V14.01,2013-08-18 20:45:00,
2013-08-18 15:46:00,79.9,61.3,30.02,SSE,157,7.0,14.0,53,0.00,,SKC,0.00,VWS V14.01,2013-08-18 20:46:00,
2013-08-18 15:47:00,79.8,60.1,30.02,SSE,152,13.0,14.0,51,0.00,,SKC,0.00,VWS V14.01,2013-08-18 20:47:00,
2013-08-18 15:48:00,79.8,60.6,30.02,SE,132,11.0,15.0,52,0.00,,SKC,0.00,VWS V14.01,2013-08-18 20:48:00,
2013-08-18 15:50:00,79.9,60.7,30.02,SE,136,1.0,15.0,52,0.00,,SKC,0.00,VWS V14.01,2013-08-18 20:50:00,
2013-08-18 15:51:00,80.1,61.4,30.02,SE,146,2.0,3.0,53,0.00,,SKC,0.00,VWS V14.01,2013-08-18 20:51:00,
2013-08-18 15:52:00,80.1,61.4,30.02,SSE,148,7.0,11.0,53,0.00,,SKC,0.00,VWS V14.01,2013-08-18 20:52:00,
2013-08-18 15:53:00,80.1,61.4,30.02,SSE,167,4.0,11.0,53,0.00,,SKC,0.00,VWS V14.01,2013-08-18 20:53:00,
2013-08-18 15:55:00,80.1,60.9,30.02,SSE,159,9.0,11.0,52,0.00,,SKC,0.00,VWS V14.01,2013-08-18 20:55:00,
2013-08-18 15:56:00,80.1,60.9,30.02,SSE,153,1.0,12.0,52,0.00,,SKC,0.00,VWS V14.01,2013-08-18 20:56:00,
2013-08-18 15:57:00,80.1,60.4,30.02,SSE,153,3.0,12.0,51,0.00,,SKC,0.00,VWS V14.01,2013-08-18 20:57:00,
2013-08-18 15:58:00,80.1,60.4,30.02,SE,135,7.0,12.0,51,0.00,,SKC,0.00,VWS V14.01,2013-08-18 20:58:00,
2013-08-18 16:00:00,80.3,61.6,30.02,SSE,148,9.0,13.0,53,0.00,,SKC,0.00,VWS V14.01,2013-08-18 21:00:00,
2013-08-18 16:01:00,80.3,61.6,30.02,SSE,154,4.0,7.0,53,0.00,,SKC,0.00,VWS V14.01,2013-08-18 21:01:00,
2013-08-18 16:02:00,80.3,61.6,30.02,SE,146,7.0,11.0,53,0.00,,SKC,0.00,VWS V14.01,2013-08-18 21:02:00,
2013-08-18 16:03:00,80.5,61.8,30.02,SE,134,11.0,11.0,53,0.00,,SKC,0.00,VWS V14.01,2013-08-18 21:03:00,
2013-08-18 16:05:00,80.7,60.9,30.02,SSE,155,9.0,17.0,51,0.00,,SKC,0.00,VWS V14.01,2013-08-18 21:05:00,
2013-08-18 16:06:00,80.5,60.7,30.02,SE,146,14.0,17.0,51,0.00,,SKC,0.00,VWS V14.01,2013-08-18 21:06:00,
2013-08-18 16:07:00,80.3,60.0,30.02,SSE,153,11.0,17.0,50,0.00,,SKC,0.00,VWS V14.01,2013-08-18 21:07:00,
2013-08-18 16:08:00,80.3,60.0,30.02,SE,141,11.0,17.0,50,0.00,,SKC,0.00,VWS V14.01,2013-08-18 21:08:00,
2013-08-18 16:10:00,80.3,60.5,30.02,SE,134,7.0,17.0,51,0.00,,SKC,0.00,VWS V14.01,2013-08-18 21:10:00,
2013-08-18 16:11:00,80.5,61.3,30.02,SE,138,9.0,11.0,52,0.00,,SKC,0.00,VWS V14.01,2013-08-18 21:11:00,
2013-08-18 16:12:00,80.5,60.2,30.02,SSE,159,8.0,11.0,50,0.00,,SKC,0.00,VWS V14.01,2013-08-18 21:12:00,
2013-08-18 16:13:00,80.5,60.2,30.02,SSE,163,3.0,11.0,50,0.00,,SKC,0.00,VWS V14.01,2013-08-18 21:13:00,
2013-08-18 16:15:00,80.5,60.7,30.02,SSE,148,7.0,12.0,51,0.00,,SKC,0.00,VWS V14.01,2013-08-18 21:15:00,
2013-08-18 16:16:00,80.7,61.5,30.02,SE,136,7.0,14.0,52,0.00,,SKC,0.00,VWS V14.01,2013-08-18 21:16:00,
2013-08-18 16:17:00,80.7,60.9,30.02,SSE,148,12.0,14.0,51,0.00,,SKC,0.00,VWS V14.01,2013-08-18 21:17:00,
2013-08-18 16:18:00,80.7,60.9,30.02,SSE,157,4.0,14.0,51,0.00,,SKC,0.00,VWS V14.01,2013-08-18 21:18:00,
2013-08-18 16:20:00,80.7,60.9,30.02,SSE,158,8.0,14.0,51,0.00,,---,0.00,VWS V14.01,2013-08-18 21:20:00,
2013-08-18 16:21:00,80.7,60.3,30.02,SSE,162,6.0,14.0,50,0.00,,SKC,0.00,VWS V14.01,2013-08-18 21:21:00,
2013-08-18 16:22:00,80.5,60.7,30.02,SSE,157,5.0,7.0,51,0.00,,SKC,0.00,VWS V14.01,2013-08-18 21:22:00,
2013-08-18 16:23:00,80.5,60.7,30.02,SSE,161,5.0,9.0,51,0.00,,SKC,0.00,VWS V14.01,2013-08-18 21:23:00,
2013-08-18 16:26:00,80.7,61.5,30.02,SSE,155,8.0,14.0,52,0.00,,SKC,0.00,VWS V14.01,2013-08-18 21:26:00,
2013-08-18 16:27:00,80.5,60.7,30.02,SSE,156,6.0,15.0,51,0.00,,SKC,0.00,VWS V14.01,2013-08-18 21:27:00,
2013-08-18 16:28:00,80.5,61.3,30.02,SE,143,3.0,15.0,52,0.00,,SKC,0.00,VWS V14.01,2013-08-18 21:28:00,
2013-08-18 16:30:00,80.3,61.6,30.01,SSE,158,6.0,15.0,53,0.00,,---,0.00,VWS V14.01,2013-08-18 21:30:00,
2013-08-18 16:31:00,80.3,61.6,30.01,SSE,157,2.0,15.0,53,0.00,,SKC,0.00,VWS V14.01,2013-08-18 21:31:00,
2013-08-18 16:32:00,80.3,61.6,30.01,South,170,1.0,3.0,53,0.00,,SKC,0.00,VWS V14.01,2013-08-18 21:32:00,
2013-08-18 16:33:00,80.3,61.6,30.01,SE,132,11.0,12.0,53,0.00,,SKC,0.00,VWS V14.01,2013-08-18 21:33:00,
2013-08-18 16:36:00,80.5,61.3,30.01,SSE,147,4.0,14.0,52,0.00,,SKC,0.00,VWS V14.01,2013-08-18 21:36:00,
2013-08-18 16:37:00,80.5,61.8,30.01,SE,134,11.0,14.0,53,0.00,,SKC,0.00,VWS V14.01,2013-08-18 21:37:00,
2013-08-18 16:38:00,80.5,60.7,30.01,ESE,112,12.0,14.0,51,0.00,,SKC,0.00,VWS V14.01,2013-08-18 21:38:00,
2013-08-18 16:40:00,80.9,62.2,30.01,SE,135,8.0,14.0,53,0.00,,---,0.00,VWS V14.01,2013-08-18 21:40:00,
2013-08-18 16:41:00,80.9,62.2,30.01,SSE,148,4.0,14.0,53,0.00,,SKC,0.00,VWS V14.01,2013-08-18 21:41:00,
2013-08-18 16:42:00,80.7,61.5,30.01,SSE,161,6.0,13.0,52,0.00,,SKC,0.00,VWS V14.01,2013-08-18 21:42:00,
2013-08-18 16:43:00,80.7,60.9,30.01,SE,144,11.0,14.0,51,0.00,,SKC,0.00,VWS V14.01,2013-08-18 21:43:00,
2013-08-18 16:46:00,80.7,61.5,30.00,SE,133,7.0,14.0,52,0.00,,SKC,0.00,VWS V14.01,2013-08-18 21:46:00,
2013-08-18 16:47:00,80.7,60.9,30.00,SSE,149,9.0,14.0,51,0.00,,SKC,0.00,VWS V14.01,2013-08-18 21:47:00,
2013-08-18 16:48:00,80.7,60.9,30.00,SSE,151,9.0,14.0,51,0.00,,SKC,0.00,VWS V14.01,2013-08-18 21:48:00,
2013-08-18 16:49:00,80.7,60.9,30.00,SSE,152,10.0,14.0,51,0.00,,SKC,0.00,VWS V14.01,2013-08-18 21:49:00,
2013-08-18 16:50:00,80.7,61.5,30.00,SSE,158,9.0,14.0,52,0.00,,---,0.00,VWS V14.01,2013-08-18 21:50:00,
2013-08-18 16:51:00,80.7,61.5,30.00,SSE,159,12.0,14.0,52,0.00,,SKC,0.00,VWS V14.01,2013-08-18 21:51:00,
2013-08-18 16:52:00,80.7,62.0,30.00,SE,127,14.0,16.0,53,0.00,,SKC,0.00,VWS V14.01,2013-08-18 21:52:00,
2013-08-18 16:53:00,80.7,60.3,30.00,SE,138,11.0,16.0,50,0.00,,SKC,0.00,VWS V14.01,2013-08-18 21:53:00,
2013-08-18 16:54:00,80.7,60.3,30.00,SE,142,11.0,16.0,50,0.00,,SKC,0.00,VWS V14.01,2013-08-18 21:54:00,
2013-08-18 16:56:00,80.7,61.5,30.00,SE,131,8.0,16.0,52,0.00,,SKC,0.00,VWS V14.01,2013-08-18 21:56:00,
2013-08-18 16:57:00,80.9,61.1,30.00,SE,126,12.0,16.0,51,0.00,,SKC,0.00,VWS V14.01,2013-08-18 21:57:00,
2013-08-18 16:58:00,80.7,60.9,30.00,SE,126,11.0,16.0,51,0.00,,SKC,0.00,VWS V14.01,2013-08-18 21:58:00,
2013-08-18 17:00:00,80.9,60.5,30.00,SE,135,11.0,17.0,50,0.00,,---,0.00,VWS V14.01,2013-08-18 22:00:00,
2013-08-18 17:01:00,80.9,60.5,30.00,SSE,149,11.0,17.0,50,0.00,,SKC,0.00,VWS V14.01,2013-08-18 22:01:00,
2013-08-18 17:02:00,81.1,61.3,30.00,SE,137,9.0,12.0,51,0.00,,SKC,0.00,VWS V14.01,2013-08-18 22:02:00,
2013-08-18 17:03:00,81.1,61.3,30.00,SE,141,10.0,12.0,51,0.00,,SKC,0.00,VWS V14.01,2013-08-18 22:03:00,
2013-08-18 17:06:00,80.9,60.0,30.00,SSE,148,10.0,14.0,49,0.00,,SKC,0.00,VWS V14.01,2013-08-18 22:06:00,
2013-08-18 17:07:00,80.9,60.5,30.00,SE,132,8.0,14.0,50,0.00,,SKC,0.00,VWS V14.01,2013-08-18 22:07:00,
2013-08-18 17:08:00,80.9,60.5,30.00,SSE,149,10.0,14.0,50,0.00,,SKC,0.00,VWS V14.01,2013-08-18 22:08:00,
2013-08-18 17:09:00,80.9,60.5,30.00,SSE,153,9.0,14.0,50,0.00,,SKC,0.00,VWS V14.01,2013-08-18 22:09:00,
2013-08-18 17:10:00,81.1,60.7,30.00,SSE,158,9.0,14.0,50,0.00,,---,0.00,VWS V14.01,2013-08-18 22:10:00,
2013-08-18 17:11:00,81.1,60.7,30.00,SE,134,7.0,14.0,50,0.00,,SKC,0.00,VWS V14.01,2013-08-18 22:11:00,
2013-08-18 17:12:00,81.1,61.3,30.00,SSE,154,4.0,13.0,51,0.00,,SKC,0.00,VWS V14.01,2013-08-18 22:12:00,
2013-08-18 17:13:00,81.1,60.2,30.00,SSE,152,10.0,13.0,49,0.00,,SKC,0.00,VWS V14.01,2013-08-18 22:13:00,
2013-08-18 17:14:00,81.1,60.2,30.00,SE,143,10.0,14.0,49,0.00,,SKC,0.00,VWS V14.01,2013-08-18 22:14:00,
2013-08-18 17:16:00,80.9,60.5,30.00,SE,139,1.0,14.0,50,0.00,,SKC,0.00,VWS V14.01,2013-08-18 22:16:00,
2013-08-18 17:18:00,81.1,60.7,30.00,SE,145,15.0,15.0,50,0.00,,SKC,0.00,VWS V14.01,2013-08-18 22:18:00,
2013-08-18 17:19:00,81.1,61.3,30.00,SSE,151,9.0,18.0,51,0.00,,SKC,0.00,VWS V14.01,2013-08-18 22:19:00,
2013-08-18 17:20:00,80.9,60.5,30.00,SSE,158,8.0,18.0,50,0.00,,---,0.00,VWS V14.01,2013-08-18 22:20:00,
2013-08-18 17:21:00,80.9,60.5,30.00,SSE,158,6.0,18.0,50,0.00,,SKC,0.00,VWS V14.01,2013-08-18 22:21:00,
2013-08-18 17:23:00,80.9,61.1,30.00,SE,143,12.0,13.0,51,0.00,,SKC,0.00,VWS V14.01,2013-08-18 22:23:00,
2013-08-18 17:24:00,80.9,60.5,30.00,ESE,121,10.0,13.0,50,0.00,,SKC,0.00,VWS V14.01,2013-08-18 22:24:00,
2013-08-18 17:26:00,80.9,60.5,30.00,SSE,149,1.0,13.0,50,0.00,,SKC,0.00,VWS V14.01,2013-08-18 22:26:00,
2013-08-18 17:28:00,80.9,61.1,30.00,SSE,158,9.0,14.0,51,0.00,,SKC,0.00,VWS V14.01,2013-08-18 22:28:00,
2013-08-18 17:29:00,80.9,61.1,30.00,SSE,155,5.0,14.0,51,0.00,,SKC,0.00,VWS V14.01,2013-08-18 22:29:00,
2013-08-18 17:30:00,80.9,62.2,29.99,SSE,158,7.0,15.0,53,0.00,,---,0.00,VWS V14.01,2013-08-18 22:30:00,
2013-08-18 17:31:00,80.9,62.2,29.99,SE,124,11.0,15.0,53,0.00,,SKC,0.00,VWS V14.01,2013-08-18 22:31:00,
2013-08-18 17:33:00,80.9,60.0,29.99,SSE,149,12.0,14.0,49,0.00,,SKC,0.00,VWS V14.01,2013-08-18 22:33:00,
2013-08-18 17:34:00,80.9,60.5,29.99,SSE,149,10.0,14.0,50,0.00,,SKC,0.00,VWS V14.01,2013-08-18 22:34:00,
2013-08-18 17:36:00,80.9,60.0,29.99,SE,138,9.0,14.0,49,0.00,,SKC,0.00,VWS V14.01,2013-08-18 22:36:00,
2013-08-18 17:38:00,80.9,60.5,29.99,SE,139,10.0,14.0,50,0.00,,SKC,0.00,VWS V14.01,2013-08-18 22:38:00,
2013-08-18 17:39:00,80.9,60.5,29.99,SE,127,9.0,14.0,50,0.00,,SKC,0.00,VWS V14.01,2013-08-18 22:39:00,
2013-08-18 17:40:00,81.1,60.7,29.99,SE,135,10.0,14.0,50,0.00,,---,0.00,VWS V14.01,2013-08-18 22:40:00,
2013-08-18 17:41:00,81.1,60.7,29.99,SE,144,12.0,14.0,50,0.00,,SKC,0.00,VWS V14.01,2013-08-18 22:41:00,
2013-08-18 17:43:00,80.9,60.5,29.99,SSE,162,9.0,16.0,50,0.00,,SKC,0.00,VWS V14.01,2013-08-18 22:43:00,
2013-08-18 17:44:00,81.1,61.3,29.99,SSE,147,4.0,16.0,51,0.00,,SKC,0.00,VWS V14.01,2013-08-18 22:44:00,
2013-08-18 17:46:00,80.9,61.1,29.99,SE,146,11.0,16.0,51,0.00,,SKC,0.00,VWS V14.01,2013-08-18 22:46:00,
2013-08-18 17:48:00,80.9,61.1,29.99,SE,139,9.0,16.0,51,0.00,,SKC,0.00,VWS V14.01,2013-08-18 22:48:00,
2013-08-18 17:49:00,80.9,61.1,29.99,SSE,150,13.0,16.0,51,0.00,,SKC,0.00,VWS V14.01,2013-08-18 22:49:00,
2013-08-18 17:50:00,81.1,61.3,29.99,SSE,158,10.0,16.0,51,0.00,,---,0.00,VWS V14.01,2013-08-18 22:50:00,
2013-08-18 17:51:00,81.1,61.3,29.99,SE,146,5.0,10.0,51,0.00,,SKC,0.00,VWS V14.01,2013-08-18 22:51:00,
2013-08-18 17:53:00,81.1,60.2,29.99,SSE,153,12.0,12.0,49,0.00,,SKC,0.00,VWS V14.01,2013-08-18 22:53:00,
2013-08-18 17:54:00,81.1,60.2,29.99,SE,142,9.0,14.0,49,0.00,,SKC,0.00,VWS V14.01,2013-08-18 22:54:00,
2013-08-18 17:56:00,81.2,60.2,29.99,SSE,154,9.0,14.0,49,0.00,,SKC,0.00,VWS V14.01,2013-08-18 22:56:00,
2013-08-18 17:58:00,81.1,60.2,29.99,SSE,147,3.0,14.0,49,0.00,,SKC,0.00,VWS V14.01,2013-08-18 22:58:00,
2013-08-18 17:59:00,81.1,60.7,29.99,SSE,147,2.0,14.0,50,0.00,,SKC,0.00,VWS V14.01,2013-08-18 22:59:00,
2013-08-18 18:00:00,81.2,61.4,29.99,SE,135,7.0,14.0,51,0.00,,---,0.00,VWS V14.01,2013-08-18 23:00:00,
2013-08-18 18:01:00,81.2,61.4,29.99,SE,134,7.0,7.0,51,0.00,,SKC,0.00,VWS V14.01,2013-08-18 23:01:00,
2013-08-18 18:03:00,81.2,61.4,29.99,SSE,154,7.0,10.0,51,0.00,,SKC,0.00,VWS V14.01,2013-08-18 23:03:00,
2013-08-18 18:04:00,81.1,61.3,29.99,SSE,154,2.0,11.0,51,0.00,,SKC,0.00,VWS V14.01,2013-08-18 23:04:00,
2013-08-18 18:06:00,80.9,61.6,29.99,SSE,154,7.0,11.0,52,0.00,,SKC,0.00,VWS V14.01,2013-08-18 23:06:00,
2013-08-18 18:08:00,80.7,60.3,29.99,SE,137,10.0,13.0,50,0.00,,SKC,0.00,VWS V14.01,2013-08-18 23:08:00,
2013-08-18 18:09:00,80.7,60.9,29.99,ESE,104,7.0,13.0,51,0.00,,SKC,0.00,VWS V14.01,2013-08-18 23:09:00,
2013-08-18 18:10:00,80.9,61.6,29.99,SE,135,7.0,13.0,52,0.00,,---,0.00,VWS V14.01,2013-08-18 23:10:00,
2013-08-18 18:12:00,80.9,61.6,29.99,SE,126,7.0,10.0,52,0.00,,SKC,0.00,VWS V14.01,2013-08-18 23:12:00,
2013-08-18 18:13:00,80.9,61.6,29.99,SE,132,7.0,11.0,52,0.00,,SKC,0.00,VWS V14.01,2013-08-18 23:13:00,
2013-08-18 18:14:00,80.9,61.1,29.99,ESE,119,11.0,13.0,51,0.00,,SKC,0.00,VWS V14.01,2013-08-18 23:14:00,
2013-08-18 18:17:00,80.9,61.1,29.99,SE,135,6.0,13.0,51,0.00,,SKC,0.00,VWS V14.01,2013-08-18 23:17:00,
2013-08-18 18:18:00,80.9,61.1,29.99,SE,144,13.0,14.0,51,0.00,,SKC,0.00,VWS V14.01,2013-08-18 23:18:00,
2013-08-18 18:19:00,80.9,61.1,29.99,SSE,148,12.0,14.0,51,0.00,,SKC,0.00,VWS V14.01,2013-08-18 23:19:00,
2013-08-18 18:20:00,80.9,61.1,29.99,SE,135,10.0,15.0,51,0.00,,---,0.00,VWS V14.01,2013-08-18 23:20:00,
2013-08-18 18:22:00,80.9,61.1,29.99,SSE,167,8.0,9.0,51,0.00,,SKC,0.00,VWS V14.01,2013-08-18 23:22:00,
2013-08-18 18:23:00,80.7,61.5,29.99,SSE,151,2.0,9.0,52,0.00,,SKC,0.00,VWS V14.01,2013-08-18 23:23:00,
2013-08-18 18:24:00,80.7,61.5,29.99,SSE,148,9.0,10.0,52,0.00,,SKC,0.00,VWS V14.01,2013-08-18 23:24:00,
2013-08-18 18:27:00,80.5,60.7,29.99,SSE,155,1.0,10.0,51,0.00,,SKC,0.00,VWS V14.01,2013-08-18 23:27:00,
2013-08-18 18:28:00,80.5,61.8,29.99,SSE,154,9.0,10.0,53,0.00,,SKC,0.00,VWS V14.01,2013-08-18 23:28:00,
2013-08-18 18:29:00,80.5,61.8,29.99,SSE,154,9.0,12.0,53,0.00,,SKC,0.00,VWS V14.01,2013-08-18 23:29:00,
2013-08-18 18:30:00,80.3,60.5,29.99,SSE,158,5.0,12.0,51,0.00,,---,0.00,VWS V14.01,2013-08-18 23:30:00,
2013-08-18 18:32:00,80.3,61.6,29.99,SSE,155,5.0,9.0,53,0.00,,SKC,0.00,VWS V14.01,2013-08-18 23:32:00,
2013-08-18 18:33:00,80.3,61.1,29.99,SSE,155,7.0,9.0,52,0.00,,SKC,0.00,VWS V14.01,2013-08-18 23:33:00,
2013-08-18 18:34:00,80.3,61.6,29.99,SE,141,9.0,10.0,53,0.00,,SKC,0.00,VWS V14.01,2013-08-18 23:34:00,
2013-08-18 18:37:00,80.1,62.0,29.99,SE,144,9.0,10.0,54,0.00,,SKC,0.00,VWS V14.01,2013-08-18 23:37:00,
2013-08-18 18:38:00,80.1,62.0,29.99,SSE,148,9.0,11.0,54,0.00,,SKC,0.00,VWS V14.01,2013-08-18 23:38:00,
2013-08-18 18:39:00,80.1,61.4,29.99,SSE,157,6.0,11.0,53,0.00,,SKC,0.00,VWS V14.01,2013-08-18 23:39:00,
2013-08-18 18:40:00,80.1,62.0,29.99,SSE,158,7.0,11.0,54,0.00,,---,0.00,VWS V14.01,2013-08-18 23:40:00,
2013-08-18 18:42:00,80.1,62.0,29.99,SE,140,11.0,13.0,54,0.00,,SKC,0.00,VWS V14.01,2013-08-18 23:42:00,
2013-08-18 18:43:00,79.9,61.3,29.99,SE,138,10.0,13.0,53,0.00,,SKC,0.00,VWS V14.01,2013-08-18 23:43:00,
2013-08-18 18:44:00,79.9,61.8,29.99,SE,137,11.0,13.0,54,0.00,,SKC,0.00,VWS V14.01,2013-08-18 23:44:00,
2013-08-18 18:47:00,79.9,61.8,29.99,SE,146,5.0,13.0,54,0.00,,SKC,0.00,VWS V14.01,2013-08-18 23:47:00,
2013-08-18 18:48:00,79.9,61.8,29.99,SE,146,7.0,13.0,54,0.00,,SKC,0.00,VWS V14.01,2013-08-18 23:48:00,
2013-08-18 18:49:00,79.9,61.8,29.99,SE,145,10.0,13.0,54,0.00,,SKC,0.00,VWS V14.01,2013-08-18 23:49:00,
2013-08-18 18:50:00,79.9,61.8,29.99,SE,145,9.0,13.0,54,0.00,,SKC,0.00,VWS V14.01,2013-08-18 23:50:00,
2013-08-18 18:52:00,79.9,62.3,29.99,SE,146,10.0,10.0,55,0.00,,SKC,0.00,VWS V14.01,2013-08-18 23:52:00,
2013-08-18 18:53:00,79.9,62.3,29.99,SE,146,6.0,11.0,55,0.00,,SKC,0.00,VWS V14.01,2013-08-18 23:53:00,
2013-08-18 18:54:00,79.9,62.3,29.99,SE,146,6.0,11.0,55,0.00,,SKC,0.00,VWS V14.01,2013-08-18 23:54:00,
2013-08-18 18:55:00,79.8,62.2,29.99,SE,127,10.0,11.0,55,0.00,,SKC,0.00,VWS V14.01,2013-08-18 23:55:00,
2013-08-18 18:57:00,79.8,62.2,29.99,SE,141,5.0,11.0,55,0.00,,SKC,0.00,VWS V14.01,2013-08-18 23:57:00,
2013-08-18 18:58:00,79.8,62.2,29.99,SE,141,5.0,11.0,55,0.00,,SKC,0.00,VWS V14.01,2013-08-18 23:58:00,
2013-08-18 18:59:00,79.8,62.2,29.99,SE,141,6.0,11.0,55,0.00,,SKC,0.00,VWS V14.01,2013-08-18 23:59:00,
2013-08-18 19:00:00,79.8,62.2,29.99,SSE,148,9.0,11.0,55,0.00,,SKC,0.00,VWS V14.01,2013-08-19 00:00:00,
2013-08-18 19:02:00,79.8,62.2,29.99,SE,146,8.0,11.0,55,0.00,,SKC,0.00,VWS V14.01,2013-08-19 00:02:00,
2013-08-18 19:03:00,79.8,62.7,29.99,SE,146,7.0,11.0,56,0.00,,SKC,0.00,VWS V14.01,2013-08-19 00:03:00,
2013-08-18 19:04:00,79.8,62.7,29.99,SE,143,8.0,11.0,56,0.00,,SKC,0.00,VWS V14.01,2013-08-19 00:04:00,
2013-08-18 19:05:00,79.6,62.5,29.99,SSE,148,4.0,11.0,56,0.00,,SKC,0.00,VWS V14.01,2013-08-19 00:05:00,
2013-08-18 19:08:00,79.6,63.0,29.99,SE,144,5.0,11.0,57,0.00,,SKC,0.00,VWS V14.01,2013-08-19 00:08:00,
2013-08-18 19:09:00,79.6,63.0,29.99,SE,142,6.0,11.0,57,0.00,,SKC,0.00,VWS V14.01,2013-08-19 00:09:00,
2013-08-18 19:10:00,79.4,62.9,29.99,SE,144,5.0,11.0,57,0.00,,SKC,0.00,VWS V14.01,2013-08-19 00:10:00,
2013-08-18 19:13:00,79.4,62.9,29.99,SE,142,6.0,6.0,57,0.00,,SKC,0.00,VWS V14.01,2013-08-19 00:13:00,
2013-08-18 19:14:00,79.2,62.7,29.99,SE,137,6.0,9.0,57,0.00,,SKC,0.00,VWS V14.01,2013-08-19 00:14:00,
2013-08-18 19:15:00,79.2,62.7,29.99,SE,134,5.0,9.0,57,0.00,,SKC,0.00,VWS V14.01,2013-08-19 00:15:00,
2013-08-18 19:18:00,79.0,62.5,29.98,SE,133,6.0,9.0,57,0.00,,SKC,0.00,VWS V14.01,2013-08-19 00:18:00,
2013-08-18 19:19:00,79.0,63.0,29.98,SE,133,5.0,9.0,58,0.00,,SKC,0.00,VWS V14.01,2013-08-19 00:19:00,
2013-08-18 19:20:00,79.0,63.0,29.98,SE,135,6.0,9.0,58,0.00,,SKC,0.00,VWS V14.01,2013-08-19 00:20:00,
2013-08-18 19:23:00,78.8,62.8,29.98,SE,132,7.0,8.0,58,0.00,,SKC,0.00,VWS V14.01,2013-08-19 00:23:00,
2013-08-18 19:24:00,78.8,62.8,29.98,SE,132,6.0,8.0,58,0.00,,SKC,0.00,VWS V14.01,2013-08-19 00:24:00,
2013-08-18 19:25:00,78.8,63.3,29.98,SE,132,5.0,8.0,59,0.00,,SKC,0.00,VWS V14.01,2013-08-19 00:25:00,
2013-08-18 19:28:00,78.6,63.6,29.98,SE,132,5.0,8.0,60,0.00,,SKC,0.00,VWS V14.01,2013-08-19 00:28:00,
2013-08-18 19:29:00,78.5,63.5,29.98,SE,132,5.0,8.0,60,0.00,,SKC,0.00,VWS V14.01,2013-08-19 00:29:00,
2013-08-18 19:30:00,78.5,63.5,29.98,SE,132,6.0,8.0,60,0.00,,SKC,0.00,VWS V14.01,2013-08-19 00:30:00,
2013-08-18 19:33:00,78.5,63.0,29.99,SE,135,6.0,10.0,59,0.00,,SKC,0.00,VWS V14.01,2013-08-19 00:33:00,
2013-08-18 19:34:00,78.5,63.0,29.99,SE,129,6.0,10.0,59,0.00,,SKC,0.00,VWS V14.01,2013-08-19 00:34:00,
2013-08-18 19:35:00,78.5,63.5,29.99,SE,130,5.0,10.0,60,0.00,,SKC,0.00,VWS V14.01,2013-08-19 00:35:00,
2013-08-18 19:38:00,78.3,61.8,29.99,SE,134,9.0,10.0,57,0.00,,SKC,0.00,VWS V14.01,2013-08-19 00:38:00,
2013-08-18 19:39:00,78.3,61.8,29.99,SE,135,6.0,10.0,57,0.00,,SKC,0.00,VWS V14.01,2013-08-19 00:39:00,
2013-08-18 19:40:00,78.3,63.3,29.99,SE,130,8.0,10.0,60,0.00,,SKC,0.00,VWS V14.01,2013-08-19 00:40:00,
2013-08-18 19:43:00,78.1,63.1,29.99,SE,133,5.0,9.0,60,0.00,,SKC,0.00,VWS V14.01,2013-08-19 00:43:00,
2013-08-18 19:44:00,78.1,63.1,29.99,SE,134,5.0,9.0,60,0.00,,SKC,0.00,VWS V14.01,2013-08-19 00:44:00,
2013-08-18 19:45:00,77.9,62.9,29.99,SE,133,5.0,9.0,60,0.00,,SKC,0.00,VWS V14.01,2013-08-19 00:45:00,
2013-08-18 19:48:00,77.9,63.4,29.99,SE,134,6.0,9.0,61,0.00,,SKC,0.00,VWS V14.01,2013-08-19 00:48:00,
2013-08-18 19:49:00,77.7,62.7,29.99,SE,134,5.0,9.0,60,0.00,,SKC,0.00,VWS V14.01,2013-08-19 00:49:00,
2013-08-18 19:50:00,77.7,62.7,29.99,SE,135,4.0,9.0,60,0.00,,SKC,0.00,VWS V14.01,2013-08-19 00:50:00,
2013-08-18 19:53:00,77.6,63.1,29.99,SE,134,3.0,6.0,61,0.00,,SKC,0.00,VWS V14.01,2013-08-19 00:53:00,
2013-08-18 19:54:00,77.6,63.6,29.99,SE,135,4.0,6.0,62,0.00,,SKC,0.00,VWS V14.01,2013-08-19 00:54:00,
2013-08-18 19:55:00,77.4,62.9,29.99,SE,134,5.0,6.0,61,0.00,,SKC,0.00,VWS V14.01,2013-08-19 00:55:00,
2013-08-18 19:56:00,77.4,63.4,29.99,SE,134,5.0,6.0,62,0.00,,SKC,0.00,VWS V14.01,2013-08-19 00:56:00,
2013-08-18 19:58:00,77.4,63.4,29.99,SE,134,5.0,6.0,62,0.00,,SKC,0.00,VWS V14.01,2013-08-19 00:58:00,
2013-08-18 19:59:00,77.2,63.2,29.99,SE,134,3.0,6.0,62,0.00,,SKC,0.00,VWS V14.01,2013-08-19 00:59:00,
2013-08-18 20:00:00,77.2,63.2,29.99,SE,134,4.0,6.0,62,0.00,,SKC,0.00,VWS V14.01,2013-08-19 01:00:00,
2013-08-18 20:01:00,77.2,63.2,29.99,SE,134,4.0,6.0,62,0.00,,SKC,0.00,VWS V14.01,2013-08-19 01:01:00,
2013-08-18 20:03:00,77.0,63.0,29.99,SE,134,4.0,5.0,62,0.00,,SKC,0.00,VWS V14.01,2013-08-19 01:03:00,
2013-08-18 20:04:00,77.0,63.0,29.99,SE,134,4.0,5.0,62,0.00,,SKC,0.00,VWS V14.01,2013-08-19 01:04:00,
2013-08-18 20:05:00,77.0,63.0,29.99,SE,134,3.0,5.0,62,0.00,,SKC,0.00,VWS V14.01,2013-08-19 01:05:00,
2013-08-18 20:06:00,77.0,63.0,29.99,SE,134,4.0,5.0,62,0.00,,SKC,0.00,VWS V14.01,2013-08-19 01:06:00,
2013-08-18 20:08:00,77.0,63.0,29.99,ESE,123,5.0,6.0,62,0.00,,SKC,0.00,VWS V14.01,2013-08-19 01:08:00,
2013-08-18 20:09:00,77.0,63.0,29.99,ESE,123,4.0,6.0,62,0.00,,SKC,0.00,VWS V14.01,2013-08-19 01:09:00,
2013-08-18 20:10:00,76.8,62.8,29.99,ESE,123,4.0,6.0,62,0.00,,SKC,0.00,VWS V14.01,2013-08-19 01:10:00,
2013-08-18 20:11:00,76.8,62.8,29.99,ESE,122,4.0,6.0,62,0.00,,SKC,0.00,VWS V14.01,2013-08-19 01:11:00,
2013-08-18 20:14:00,76.7,62.7,29.99,ESE,122,6.0,6.0,62,0.00,,SKC,0.00,VWS V14.01,2013-08-19 01:14:00,
2013-08-18 20:15:00,76.7,63.2,29.99,ESE,122,4.0,6.0,63,0.00,,SKC,0.00,VWS V14.01,2013-08-19 01:15:00,
2013-08-18 20:16:00,76.7,63.2,29.99,ESE,122,4.0,6.0,63,0.00,,SKC,0.00,VWS V14.01,2013-08-19 01:16:00,
2013-08-18 20:19:00,76.5,63.0,29.99,ESE,122,4.0,6.0,63,0.00,,SKC,0.00,VWS V14.01,2013-08-19 01:19:00,
2013-08-18 20:20:00,76.5,63.0,29.99,ESE,122,4.0,6.0,63,0.00,,SKC,0.00,VWS V14.01,2013-08-19 01:20:00,
2013-08-18 20:21:00,76.5,63.0,29.99,ESE,122,5.0,6.0,63,0.00,,SKC,0.00,VWS V14.01,2013-08-19 01:21:00,
2013-08-18 20:24:00,76.3,63.2,29.99,ESE,108,5.0,6.0,64,0.00,,SKC,0.00,VWS V14.01,2013-08-19 01:24:00,
2013-08-18 20:25:00,76.3,63.2,29.99,ESE,108,5.0,6.0,64,0.00,,SKC,0.00,VWS V14.01,2013-08-19 01:25:00,
2013-08-18 20:26:00,76.3,63.2,29.99,ESE,109,5.0,7.0,64,0.00,,SKC,0.00,VWS V14.01,2013-08-19 01:26:00,
2013-08-18 20:29:00,76.1,63.5,29.99,ESE,109,4.0,7.0,65,0.00,,SKC,0.00,VWS V14.01,2013-08-19 01:29:00,
2013-08-18 20:30:00,76.0,63.4,29.99,ESE,110,5.0,7.0,65,0.00,,SKC,0.00,VWS V14.01,2013-08-19 01:30:00,
2013-08-18 20:31:00,76.0,63.4,30.00,ESE,111,5.0,7.0,65,0.00,,SKC,0.00,VWS V14.01,2013-08-19 01:31:00,
2013-08-18 20:34:00,75.8,63.2,30.00,ESE,111,4.0,7.0,65,0.00,,SKC,0.00,VWS V14.01,2013-08-19 01:34:00,
2013-08-18 20:35:00,75.8,63.2,30.00,ESE,117,7.0,7.0,65,0.00,,SKC,0.00,VWS V14.01,2013-08-19 01:35:00,
2013-08-18 20:36:00,75.8,63.2,30.00,ESE,117,4.0,7.0,65,0.00,,SKC,0.00,VWS V14.01,2013-08-19 01:36:00,
2013-08-18 20:39:00,75.6,63.5,30.00,ESE,113,4.0,7.0,66,0.00,,SKC,0.00,VWS V14.01,2013-08-19 01:39:00,
2013-08-18 20:40:00,75.6,63.5,30.00,ESE,113,4.0,7.0,66,0.00,,SKC,0.00,VWS V14.01,2013-08-19 01:40:00,
2013-08-18 20:41:00,75.6,63.5,30.00,ESE,115,5.0,7.0,66,0.00,,SKC,0.00,VWS V14.01,2013-08-19 01:41:00,
2013-08-18 20:44:00,75.4,63.3,30.00,ESE,112,4.0,7.0,66,0.00,,SKC,0.00,VWS V14.01,2013-08-19 01:44:00,
2013-08-18 20:45:00,75.4,63.3,30.00,ESE,112,5.0,7.0,66,0.00,,SKC,0.00,VWS V14.01,2013-08-19 01:45:00,
2013-08-18 20:46:00,75.4,63.3,30.00,ESE,111,7.0,7.0,66,0.00,,SKC,0.00,VWS V14.01,2013-08-19 01:46:00,
2013-08-18 20:49:00,75.4,63.3,30.00,ESE,111,4.0,8.0,66,0.00,,SKC,0.00,VWS V14.01,2013-08-19 01:49:00,
2013-08-18 20:50:00,75.4,63.3,30.00,ESE,111,4.0,8.0,66,0.00,,SKC,0.00,VWS V14.01,2013-08-19 01:50:00,
2013-08-18 20:51:00,75.3,63.6,30.00,ESE,109,8.0,8.0,67,0.00,,SKC,0.00,VWS V14.01,2013-08-19 01:51:00,
2013-08-18 20:54:00,75.3,63.6,30.00,ESE,108,3.0,8.0,67,0.00,,SKC,0.00,VWS V14.01,2013-08-19 01:54:00,
2013-08-18 20:55:00,75.3,63.6,30.00,ESE,108,4.0,8.0,67,0.00,,SKC,0.00,VWS V14.01,2013-08-19 01:55:00,
2013-08-18 20:56:00,75.3,63.6,30.00,ESE,105,3.0,8.0,67,0.00,,SKC,0.00,VWS V14.01,2013-08-19 01:56:00,
2013-08-18 20:59:00,75.3,63.6,30.00,ESE,107,5.0,8.0,67,0.00,,SKC,0.00,VWS V14.01,2013-08-19 01:59:00,
2013-08-18 21:00:00,75.3,63.6,30.00,ESE,107,6.0,8.0,67,0.00,,SKC,0.00,VWS V14.01,2013-08-19 02:00:00,
2013-08-18 21:01:00,75.1,63.4,30.01,ESE,105,4.0,5.0,67,0.00,,SKC,0.00,VWS V14.01,2013-08-19 02:01:00,
2013-08-18 21:04:00,75.1,63.4,30.01,ESE,105,5.0,7.0,67,0.00,,SKC,0.00,VWS V14.01,2013-08-19 02:04:00,
2013-08-18 21:05:00,75.1,63.4,30.01,ESE,105,3.0,7.0,67,0.00,,SKC,0.00,VWS V14.01,2013-08-19 02:05:00,
2013-08-18 21:06:00,75.1,63.4,30.01,ESE,105,5.0,7.0,67,0.00,,SKC,0.00,VWS V14.01,2013-08-19 02:06:00,
2013-08-18 21:09:00,75.1,63.4,30.01,ESE,105,4.0,7.0,67,0.00,,SKC,0.00,VWS V14.01,2013-08-19 02:09:00,
2013-08-18 21:10:00,75.1,63.4,30.01,ESE,105,6.0,7.0,67,0.00,,SKC,0.00,VWS V14.01,2013-08-19 02:10:00,
2013-08-18 21:11:00,74.9,63.6,30.01,ESE,105,4.0,5.0,68,0.00,,SKC,0.00,VWS V14.01,2013-08-19 02:11:00,
2013-08-18 21:14:00,74.9,63.6,30.01,ESE,102,5.0,9.0,68,0.00,,SKC,0.00,VWS V14.01,2013-08-19 02:14:00,
2013-08-18 21:15:00,74.9,63.6,30.01,ESE,108,5.0,9.0,68,0.00,,SKC,0.00,VWS V14.01,2013-08-19 02:15:00,
2013-08-18 21:16:00,74.9,63.6,30.01,ESE,109,7.0,9.0,68,0.00,,SKC,0.00,VWS V14.01,2013-08-19 02:16:00,
2013-08-18 21:19:00,74.7,63.5,30.01,ESE,109,5.0,9.0,68,0.00,,SKC,0.00,VWS V14.01,2013-08-19 02:19:00,
2013-08-18 21:20:00,74.7,63.5,30.01,ESE,113,6.0,9.0,68,0.00,,SKC,0.00,VWS V14.01,2013-08-19 02:20:00,
2013-08-18 21:21:00,74.7,63.5,30.01,ESE,113,5.0,9.0,68,0.00,,SKC,0.00,VWS V14.01,2013-08-19 02:21:00,
2013-08-18 21:22:00,74.7,63.5,30.01,ESE,110,5.0,8.0,68,0.00,,SKC,0.00,VWS V14.01,2013-08-19 02:22:00,
2013-08-18 21:24:00,74.6,63.3,30.01,ESE,108,6.0,9.0,68,0.00,,SKC,0.00,VWS V14.01,2013-08-19 02:24:00,
2013-08-18 21:25:00,74.6,63.3,30.01,ESE,109,5.0,9.0,68,0.00,,SKC,0.00,VWS V14.01,2013-08-19 02:25:00,
2013-08-18 21:26:00,74.6,63.3,30.01,ESE,113,5.0,9.0,68,0.00,,SKC,0.00,VWS V14.01,2013-08-19 02:26:00,
2013-08-18 21:27:00,74.6,63.3,30.01,ESE,113,5.0,9.0,68,0.00,,SKC,0.00,VWS V14.01,2013-08-19 02:27:00,
2013-08-18 21:29:00,74.6,63.3,30.01,ESE,113,5.0,9.0,68,0.00,,SKC,0.00,VWS V14.01,2013-08-19 02:29:00,
2013-08-18 21:30:00,74.4,63.2,30.01,ESE,113,5.0,9.0,68,0.00,,SKC,0.00,VWS V14.01,2013-08-19 02:30:00,
2013-08-18 21:31:00,74.4,63.2,30.01,ESE,114,8.0,9.0,68,0.00,,SKC,0.00,VWS V14.01,2013-08-19 02:31:00,
2013-08-18 21:32:00,74.4,63.2,30.01,ESE,111,4.0,6.0,68,0.00,,SKC,0.00,VWS V14.01,2013-08-19 02:32:00,
2013-08-18 21:34:00,74.4,63.2,30.01,ESE,111,4.0,7.0,68,0.00,,SKC,0.00,VWS V14.01,2013-08-19 02:34:00,
2013-08-18 21:35:00,74.4,63.2,30.01,ESE,111,4.0,7.0,68,0.00,,SKC,0.00,VWS V14.01,2013-08-19 02:35:00,
2013-08-18 21:36:00,74.4,63.2,30.01,ESE,111,5.0,7.0,68,0.00,,SKC,0.00,VWS V14.01,2013-08-19 02:36:00,
2013-08-18 21:37:00,74.4,63.2,30.01,ESE,112,7.0,7.0,68,0.00,,SKC,0.00,VWS V14.01,2013-08-19 02:37:00,
2013-08-18 21:39:00,74.2,63.4,30.01,ESE,112,5.0,7.0,69,0.00,,SKC,0.00,VWS V14.01,2013-08-19 02:39:00,
2013-08-18 21:40:00,74.2,63.4,30.01,ESE,112,4.0,7.0,69,0.00,,SKC,0.00,VWS V14.01,2013-08-19 02:40:00,
2013-08-18 21:41:00,74.2,63.4,30.01,ESE,112,4.0,5.0,69,0.00,,SKC,0.00,VWS V14.01,2013-08-19 02:41:00,
2013-08-18 21:42:00,74.2,63.4,30.01,ESE,112,5.0,5.0,69,0.00,,SKC,0.00,VWS V14.01,2013-08-19 02:42:00,
2013-08-18 21:45:00,74.0,63.2,30.01,ESE,111,5.0,7.0,69,0.00,,SKC,0.00,VWS V14.01,2013-08-19 02:45:00,
2013-08-18 21:47:00,74.0,63.2,30.02,ESE,111,5.0,7.0,69,0.00,,SKC,0.00,VWS V14.01,2013-08-19 02:47:00,
2013-08-18 21:50:00,74.0,63.6,30.02,ESE,115,4.0,8.0,70,0.00,,SKC,0.00,VWS V14.01,2013-08-19 02:50:00,
2013-08-18 21:52:00,73.9,63.5,30.02,ESE,115,5.0,6.0,70,0.00,,SKC,0.00,VWS V14.01,2013-08-19 02:52:00,
2013-08-18 21:55:00,73.7,63.3,30.02,ESE,116,4.0,7.0,70,0.00,,SKC,0.00,VWS V14.01,2013-08-19 02:55:00,
2013-08-18 21:57:00,73.7,63.3,30.02,ESE,116,3.0,7.0,70,0.00,,SKC,0.00,VWS V14.01,2013-08-19 02:57:00,
2013-08-18 22:00:00,73.7,63.3,30.02,ESE,117,7.0,7.0,70,0.00,,SKC,0.00,VWS V14.01,2013-08-19 03:00:00,
2013-08-18 22:02:00,73.7,63.3,30.03,ESE,117,4.0,5.0,70,0.00,,SKC,0.00,VWS V14.01,2013-08-19 03:02:00,
2013-08-18 22:05:00,73.7,63.3,30.03,ESE,119,4.0,7.0,70,0.00,,SKC,0.00,VWS V14.01,2013-08-19 03:05:00,
2013-08-18 22:06:00,73.7,63.3,30.03,ESE,119,5.0,7.0,70,0.00,,SKC,0.00,VWS V14.01,2013-08-19 03:06:00,
2013-08-18 22:07:00,73.5,63.1,30.03,ESE,120,5.0,7.0,70,0.00,,SKC,0.00,VWS V14.01,2013-08-19 03:07:00,
2013-08-18 22:10:00,73.5,63.1,30.03,SE,126,5.0,9.0,70,0.00,,SKC,0.00,VWS V14.01,2013-08-19 03:10:00,
2013-08-18 22:11:00,73.5,63.1,30.03,SE,127,3.0,9.0,70,0.00,,SKC,0.00,VWS V14.01,2013-08-19 03:11:00,
2013-08-18 22:12:00,73.5,63.1,30.03,SE,131,7.0,7.0,70,0.00,,SKC,0.00,VWS V14.01,2013-08-19 03:12:00,
2013-08-18 22:15:00,73.5,63.1,30.03,SE,131,6.0,8.0,70,0.00,,SKC,0.00,VWS V14.01,2013-08-19 03:15:00,
2013-08-18 22:16:00,73.5,63.1,30.02,SE,133,4.0,9.0,70,0.00,,SKC,0.00,VWS V14.01,2013-08-19 03:16:00,
2013-08-18 22:17:00,73.5,63.1,30.02,SE,132,6.0,9.0,70,0.00,,SKC,0.00,VWS V14.01,2013-08-19 03:17:00,
2013-08-18 22:18:00,73.5,63.1,30.02,SE,132,4.0,9.0,70,0.00,,SKC,0.00,VWS V14.01,2013-08-19 03:18:00,
2013-08-18 22:20:00,73.5,63.1,30.02,SE,133,6.0,9.0,70,0.00,,SKC,0.00,VWS V14.01,2013-08-19 03:20:00,
2013-08-18 22:21:00,73.5,63.1,30.02,SE,136,4.0,9.0,70,0.00,,SKC,0.00,VWS V14.01,2013-08-19 03:21:00,
2013-08-18 22:22:00,73.5,63.1,30.02,SE,136,7.0,8.0,70,0.00,,SKC,0.00,VWS V14.01,2013-08-19 03:22:00,
2013-08-18 22:23:00,73.5,63.1,30.02,SE,136,4.0,8.0,70,0.00,,SKC,0.00,VWS V14.01,2013-08-19 03:23:00,
2013-08-18 22:25:00,73.5,63.1,30.02,SE,137,5.0,8.0,70,0.00,,SKC,0.00,VWS V14.01,2013-08-19 03:25:00,
2013-08-18 22:26:00,73.5,63.1,30.02,SE,138,5.0,8.0,70,0.00,,SKC,0.00,VWS V14.01,2013-08-19 03:26:00,
2013-08-18 22:27:00,73.7,63.3,30.02,SE,139,5.0,8.0,70,0.00,,SKC,0.00,VWS V14.01,2013-08-19 03:27:00,
2013-08-18 22:28:00,73.7,63.3,30.02,SE,140,6.0,8.0,70,0.00,,SKC,0.00,VWS V14.01,2013-08-19 03:28:00,
2013-08-18 22:30:00,73.7,62.9,30.02,SE,140,7.0,9.0,69,0.00,,SKC,0.00,VWS V14.01,2013-08-19 03:30:00,
2013-08-18 22:31:00,73.7,63.3,30.03,SE,142,7.0,9.0,70,0.00,,SKC,0.00,VWS V14.01,2013-08-19 03:31:00,
2013-08-18 22:32:00,73.7,62.9,30.03,SE,141,4.0,7.0,69,0.00,,SKC,0.00,VWS V14.01,2013-08-19 03:32:00,
2013-08-18 22:33:00,73.7,63.3,30.03,SE,142,5.0,7.0,70,0.00,,SKC,0.00,VWS V14.01,2013-08-19 03:33:00,
2013-08-18 22:35:00,73.7,63.3,30.03,SE,143,5.0,7.0,70,0.00,,SKC,0.00,VWS V14.01,2013-08-19 03:35:00,
2013-08-18 22:36:00,73.7,63.3,30.03,SE,143,3.0,7.0,70,0.00,,SKC,0.00,VWS V14.01,2013-08-19 03:36:00,
2013-08-18 22:37:00,73.7,63.3,30.03,SE,144,3.0,7.0,70,0.00,,SKC,0.00,VWS V14.01,2013-08-19 03:37:00,
2013-08-18 22:38:00,73.7,63.3,30.03,SE,143,5.0,7.0,70,0.00,,SKC,0.00,VWS V14.01,2013-08-19 03:38:00,
2013-08-18 22:40:00,73.5,63.1,30.03,SE,144,4.0,9.0,70,0.00,,SKC,0.00,VWS V14.01,2013-08-19 03:40:00,
2013-08-18 22:41:00,73.5,63.1,30.03,SE,144,3.0,3.0,70,0.00,,SKC,0.00,VWS V14.01,2013-08-19 03:41:00,
2013-08-18 22:42:00,73.5,63.1,30.03,SE,144,5.0,6.0,70,0.00,,SKC,0.00,VWS V14.01,2013-08-19 03:42:00,
2013-08-18 22:43:00,73.5,63.1,30.03,SE,145,7.0,7.0,70,0.00,,SKC,0.00,VWS V14.01,2013-08-19 03:43:00,
2013-08-18 22:45:00,73.5,62.7,30.03,SE,144,7.0,9.0,69,0.00,,SKC,0.00,VWS V14.01,2013-08-19 03:45:00,
2013-08-18 22:46:00,73.5,62.7,30.03,SE,144,4.0,9.0,69,0.00,,SKC,0.00,VWS V14.01,2013-08-19 03:46:00,
2013-08-18 22:47:00,73.7,62.9,30.03,SE,146,7.0,9.0,69,0.00,,SKC,0.00,VWS V14.01,2013-08-19 03:47:00,
2013-08-18 22:48:00,73.7,62.9,30.03,SE,145,7.0,9.0,69,0.00,,SKC,0.00,VWS V14.01,2013-08-19 03:48:00,
2013-08-18 22:50:00,73.7,62.9,30.03,SE,146,4.0,9.0,69,0.00,,SKC,0.00,VWS V14.01,2013-08-19 03:50:00,
2013-08-18 22:51:00,73.7,62.9,30.03,SE,146,3.0,4.0,69,0.00,,SKC,0.00,VWS V14.01,2013-08-19 03:51:00,
2013-08-18 22:52:00,73.7,62.9,30.03,SE,146,5.0,7.0,69,0.00,,SKC,0.00,VWS V14.01,2013-08-19 03:52:00,
2013-08-18 22:53:00,73.5,62.7,30.03,SE,146,5.0,8.0,69,0.00,,SKC,0.00,VWS V14.01,2013-08-19 03:53:00,
2013-08-18 22:55:00,73.5,62.7,30.03,SE,146,5.0,8.0,69,0.00,,SKC,0.00,VWS V14.01,2013-08-19 03:55:00,
2013-08-18 22:56:00,73.5,62.7,30.03,SE,146,3.0,10.0,69,0.00,,SKC,0.00,VWS V14.01,2013-08-19 03:56:00,
2013-08-18 22:57:00,73.5,63.1,30.03,SSE,147,7.0,10.0,70,0.00,,SKC,0.00,VWS V14.01,2013-08-19 03:57:00,
2013-08-18 22:58:00,73.5,63.1,30.03,SE,146,2.0,10.0,70,0.00,,SKC,0.00,VWS V14.01,2013-08-19 03:58:00,
2013-08-18 23:00:00,73.5,63.1,30.03,SE,146,4.0,10.0,70,0.00,,SKC,0.00,VWS V14.01,2013-08-19 04:00:00,
2013-08-18 23:01:00,73.5,63.1,30.03,SE,146,3.0,10.0,70,0.00,,SKC,0.00,VWS V14.01,2013-08-19 04:01:00,
2013-08-18 23:06:00,73.3,62.9,30.03,SSE,147,5.0,6.0,70,0.00,,SKC,0.00,VWS V14.01,2013-08-19 04:06:00,
2013-08-18 23:10:00,73.2,62.8,30.03,SSE,158,4.0,7.0,70,0.00,,---,0.00,VWS V14.01,2013-08-19 04:10:00,
2013-08-18 23:11:00,73.2,62.8,30.03,SE,146,3.0,7.0,70,0.00,,SKC,0.00,VWS V14.01,2013-08-19 04:11:00,
2013-08-18 23:16:00,73.0,62.7,30.04,SSE,147,5.0,6.0,70,0.00,,SKC,0.00,VWS V14.01,2013-08-19 04:16:00,
2013-08-18 23:20:00,73.0,62.7,30.04,SSE,158,4.0,6.0,70,0.00,,---,0.00,VWS V14.01,2013-08-19 04:20:00,
2013-08-18 23:21:00,73.0,62.7,30.04,SSE,147,5.0,6.0,70,0.00,,SKC,0.00,VWS V14.01,2013-08-19 04:21:00,
2013-08-18 23:26:00,73.2,62.8,30.04,SSE,147,3.0,8.0,70,0.00,,SKC,0.00,VWS V14.01,2013-08-19 04:26:00,
2013-08-18 23:30:00,73.0,62.7,30.04,SSE,158,4.0,8.0,70,0.00,,---,0.00,VWS V14.01,2013-08-19 04:30:00,
2013-08-18 23:31:00,73.0,62.7,30.04,SSE,147,4.0,8.0,70,0.00,,SKC,0.00,VWS V14.01,2013-08-19 04:31:00,
2013-08-18 23:32:00,73.0,62.7,30.04,SSE,147,3.0,5.0,70,0.00,,SKC,0.00,VWS V14.01,2013-08-19 04:32:00,
2013-08-18 23:36:00,72.8,62.9,30.04,SE,146,3.0,6.0,71,0.00,,SKC,0.00,VWS V14.01,2013-08-19 04:36:00,
2013-08-18 23:37:00,72.8,62.9,30.04,SE,146,4.0,6.0,71,0.00,,SKC,0.00,VWS V14.01,2013-08-19 04:37:00,
2013-08-18 23:40:00,72.3,62.8,30.04,SE,135,4.0,6.0,72,0.00,,---,0.00,VWS V14.01,2013-08-19 04:40:00,
2013-08-18 23:41:00,72.5,63.0,30.04,SE,146,5.0,6.0,72,0.00,,SKC,0.00,VWS V14.01,2013-08-19 04:41:00,
2013-08-18 23:42:00,72.3,62.8,30.04,SE,146,4.0,5.0,72,0.00,,SKC,0.00,VWS V14.01,2013-08-19 04:42:00,
2013-08-18 23:46:00,72.1,63.0,30.04,SE,146,4.0,5.0,73,0.00,,SKC,0.00,VWS V14.01,2013-08-19 04:46:00,
2013-08-18 23:47:00,72.1,63.0,30.04,SE,146,3.0,6.0,73,0.00,,SKC,0.00,VWS V14.01,2013-08-19 04:47:00,
2013-08-18 23:50:00,72.0,62.9,30.04,SE,135,4.0,6.0,73,0.00,,---,0.00,VWS V14.01,2013-08-19 04:50:00,
2013-08-18 23:51:00,72.0,62.9,30.04,SE,146,4.0,6.0,73,0.00,,SKC,0.00,VWS V14.01,2013-08-19 04:51:00,
2013-08-18 23:53:00,71.8,62.7,30.04,SE,146,5.0,6.0,73,0.00,,SKC,0.00,VWS V14.01,2013-08-19 04:53:00,
2013-08-18 23:56:00,71.8,62.7,30.04,SE,146,4.0,6.0,73,0.00,,SKC,0.00,VWS V14.01,2013-08-19 04:56:00,
2013-08-18 23:58:00,71.8,62.7,30.04,SE,146,5.0,6.0,73,0.00,,SKC,0.00,VWS V14.01,2013-08-19 04:58:00,